<?xml version="1.0" encoding="UTF-8" standalone="no" ?>
<gpx xmlns="http://www.topografix.com/GPX/1/1" xmlns:xsi="http://www.w3.org/2001/XMLSchema-instance" xsi:schemaLocation="http://www.topografix.com/GPX/1/1 http://www.topografix.com/GPX/1/1/gpx.xsd" version="1.1" creator="VisuGPX - https://www.visugpx.com">
  <metadata>
    <name>Traversée La Roche des Arnauds - Montmaur</name>
    <desc><![CDATA[grp_trc:]]></desc>
  </metadata>
  <trk>
    <name><![CDATA[La Roche-des-Arnauds VTTAE]]></name>
    <cmt><![CDATA[18:51:08]]></cmt>
    <desc><![CDATA[comment ...</br>
----</br>
Groupe : mountain_biking]]></desc>
    <trkseg>
      <trkpt lat="44.56299" lon="5.95733">
        <ele>955</ele>
        <time>2022-11-06T17:51:08Z</time>
      </trkpt>
      <trkpt lat="44.56367" lon="5.95725">
        <ele>956</ele>
        <time>2022-11-06T17:51:08Z</time>
      </trkpt>
      <trkpt lat="44.56376" lon="5.95722">
        <ele>956</ele>
        <time>2022-11-06T17:51:08Z</time>
      </trkpt>
      <trkpt lat="44.56388" lon="5.95722">
        <ele>956</ele>
        <time>2022-11-06T17:51:08Z</time>
      </trkpt>
      <trkpt lat="44.56394" lon="5.9573">
        <ele>957</ele>
        <time>2022-11-06T17:51:08Z</time>
      </trkpt>
      <trkpt lat="44.56405" lon="5.9576">
        <ele>958</ele>
        <time>2022-11-06T17:51:08Z</time>
      </trkpt>
      <trkpt lat="44.56417" lon="5.95781">
        <ele>961</ele>
        <time>2022-11-06T17:51:08Z</time>
      </trkpt>
      <trkpt lat="44.56466" lon="5.95797">
        <ele>964</ele>
        <time>2022-11-06T17:51:08Z</time>
      </trkpt>
      <trkpt lat="44.56474" lon="5.95795">
        <ele>964</ele>
        <time>2022-11-06T17:51:08Z</time>
      </trkpt>
      <trkpt lat="44.56477" lon="5.95776">
        <ele>964</ele>
        <time>2022-11-06T17:51:08Z</time>
      </trkpt>
      <trkpt lat="44.56465" lon="5.95712">
        <ele>965</ele>
        <time>2022-11-06T17:51:08Z</time>
      </trkpt>
      <trkpt lat="44.56466" lon="5.9569">
        <ele>966</ele>
        <time>2022-11-06T17:51:08Z</time>
      </trkpt>
      <trkpt lat="44.56463" lon="5.95654">
        <ele>968</ele>
        <time>2022-11-06T17:51:08Z</time>
      </trkpt>
      <trkpt lat="44.56468" lon="5.9548">
        <ele>977</ele>
        <time>2022-11-06T17:51:08Z</time>
      </trkpt>
      <trkpt lat="44.56461" lon="5.95424">
        <ele>980</ele>
        <time>2022-11-06T17:51:08Z</time>
      </trkpt>
      <trkpt lat="44.56463" lon="5.95409">
        <ele>981</ele>
        <time>2022-11-06T17:51:08Z</time>
      </trkpt>
      <trkpt lat="44.56482" lon="5.95359">
        <ele>985</ele>
        <time>2022-11-06T17:51:08Z</time>
      </trkpt>
      <trkpt lat="44.56484" lon="5.95347">
        <ele>986</ele>
        <time>2022-11-06T17:51:08Z</time>
      </trkpt>
      <trkpt lat="44.56468" lon="5.95208">
        <ele>994</ele>
        <time>2022-11-06T17:51:08Z</time>
      </trkpt>
      <trkpt lat="44.56471" lon="5.95198">
        <ele>995</ele>
        <time>2022-11-06T17:51:08Z</time>
      </trkpt>
      <trkpt lat="44.56478" lon="5.95199">
        <ele>996</ele>
        <time>2022-11-06T17:51:08Z</time>
      </trkpt>
      <trkpt lat="44.56484" lon="5.95211">
        <ele>996</ele>
        <time>2022-11-06T17:51:08Z</time>
      </trkpt>
      <trkpt lat="44.56494" lon="5.9525">
        <ele>998</ele>
        <time>2022-11-06T17:51:08Z</time>
      </trkpt>
      <trkpt lat="44.56503" lon="5.95264">
        <ele>999</ele>
        <time>2022-11-06T17:51:08Z</time>
      </trkpt>
      <trkpt lat="44.56512" lon="5.95261">
        <ele>1000</ele>
        <time>2022-11-06T17:51:08Z</time>
      </trkpt>
      <trkpt lat="44.56515" lon="5.95249">
        <ele>1000</ele>
        <time>2022-11-06T17:51:08Z</time>
      </trkpt>
      <trkpt lat="44.56509" lon="5.95197">
        <ele>1003</ele>
        <time>2022-11-06T17:51:08Z</time>
      </trkpt>
      <trkpt lat="44.56511" lon="5.95187">
        <ele>1004</ele>
        <time>2022-11-06T17:51:08Z</time>
      </trkpt>
      <trkpt lat="44.56515" lon="5.95172">
        <ele>1005</ele>
        <time>2022-11-06T17:51:08Z</time>
      </trkpt>
      <trkpt lat="44.56522" lon="5.95164">
        <ele>1005</ele>
        <time>2022-11-06T17:51:08Z</time>
      </trkpt>
      <trkpt lat="44.56543" lon="5.95154">
        <ele>1008</ele>
        <time>2022-11-06T17:51:08Z</time>
      </trkpt>
      <trkpt lat="44.56568" lon="5.95152">
        <ele>1011</ele>
        <time>2022-11-06T17:51:08Z</time>
      </trkpt>
      <trkpt lat="44.5658" lon="5.95154">
        <ele>1012</ele>
        <time>2022-11-06T17:51:09Z</time>
      </trkpt>
      <trkpt lat="44.56592" lon="5.95152">
        <ele>1013</ele>
        <time>2022-11-06T17:51:09Z</time>
      </trkpt>
      <trkpt lat="44.56612" lon="5.95155">
        <ele>1014</ele>
        <time>2022-11-06T17:51:09Z</time>
      </trkpt>
      <trkpt lat="44.56637" lon="5.95131">
        <ele>1017</ele>
        <time>2022-11-06T17:51:09Z</time>
      </trkpt>
      <trkpt lat="44.56655" lon="5.95106">
        <ele>1019</ele>
        <time>2022-11-06T17:51:09Z</time>
      </trkpt>
      <trkpt lat="44.56673" lon="5.95062">
        <ele>1022</ele>
        <time>2022-11-06T17:51:09Z</time>
      </trkpt>
      <trkpt lat="44.56681" lon="5.95061">
        <ele>1022</ele>
        <time>2022-11-06T17:51:09Z</time>
      </trkpt>
      <trkpt lat="44.56671" lon="5.95098">
        <ele>1024</ele>
        <time>2022-11-06T17:51:09Z</time>
      </trkpt>
      <trkpt lat="44.5667" lon="5.95109">
        <ele>1025</ele>
        <time>2022-11-06T17:51:09Z</time>
      </trkpt>
      <trkpt lat="44.56672" lon="5.95119">
        <ele>1025</ele>
        <time>2022-11-06T17:51:09Z</time>
      </trkpt>
      <trkpt lat="44.56684" lon="5.95142">
        <ele>1026</ele>
        <time>2022-11-06T17:51:09Z</time>
      </trkpt>
      <trkpt lat="44.56705" lon="5.95159">
        <ele>1027</ele>
        <time>2022-11-06T17:51:09Z</time>
      </trkpt>
      <trkpt lat="44.56851" lon="5.95218">
        <ele>1039</ele>
        <time>2022-11-06T17:51:09Z</time>
      </trkpt>
      <trkpt lat="44.5686" lon="5.9523">
        <ele>1040</ele>
        <time>2022-11-06T17:51:09Z</time>
      </trkpt>
      <trkpt lat="44.5687" lon="5.95254">
        <ele>1042</ele>
        <time>2022-11-06T17:51:09Z</time>
      </trkpt>
      <trkpt lat="44.56882" lon="5.9526">
        <ele>1043</ele>
        <time>2022-11-06T17:51:09Z</time>
      </trkpt>
      <trkpt lat="44.5689" lon="5.95249">
        <ele>1044</ele>
        <time>2022-11-06T17:51:09Z</time>
      </trkpt>
      <trkpt lat="44.56936" lon="5.95076">
        <ele>1052</ele>
        <time>2022-11-06T17:51:09Z</time>
      </trkpt>
      <trkpt lat="44.56938" lon="5.95038">
        <ele>1054</ele>
        <time>2022-11-06T17:51:09Z</time>
      </trkpt>
      <trkpt lat="44.56932" lon="5.95005">
        <ele>1057</ele>
        <time>2022-11-06T17:51:09Z</time>
      </trkpt>
      <trkpt lat="44.56925" lon="5.94982">
        <ele>1058</ele>
        <time>2022-11-06T17:51:09Z</time>
      </trkpt>
      <trkpt lat="44.56924" lon="5.94968">
        <ele>1059</ele>
        <time>2022-11-06T17:51:09Z</time>
      </trkpt>
      <trkpt lat="44.56932" lon="5.94957">
        <ele>1060</ele>
        <time>2022-11-06T17:51:09Z</time>
      </trkpt>
      <trkpt lat="44.56946" lon="5.94942">
        <ele>1063</ele>
        <time>2022-11-06T17:51:09Z</time>
      </trkpt>
      <trkpt lat="44.56946" lon="5.94931">
        <ele>1063</ele>
        <time>2022-11-06T17:51:09Z</time>
      </trkpt>
      <trkpt lat="44.56954" lon="5.94924">
        <ele>1063</ele>
        <time>2022-11-06T17:51:09Z</time>
      </trkpt>
      <trkpt lat="44.56977" lon="5.94884">
        <ele>1068</ele>
        <time>2022-11-06T17:51:09Z</time>
      </trkpt>
      <trkpt lat="44.56987" lon="5.94868">
        <ele>1070</ele>
        <time>2022-11-06T17:51:09Z</time>
      </trkpt>
      <trkpt lat="44.5701" lon="5.94823">
        <ele>1076</ele>
        <time>2022-11-06T17:51:09Z</time>
      </trkpt>
      <trkpt lat="44.57022" lon="5.9481">
        <ele>1080</ele>
        <time>2022-11-06T17:51:09Z</time>
      </trkpt>
      <trkpt lat="44.57029" lon="5.94808">
        <ele>1081</ele>
        <time>2022-11-06T17:51:09Z</time>
      </trkpt>
      <trkpt lat="44.57037" lon="5.94811">
        <ele>1083</ele>
        <time>2022-11-06T17:51:09Z</time>
      </trkpt>
      <trkpt lat="44.57046" lon="5.9482">
        <ele>1084</ele>
        <time>2022-11-06T17:51:09Z</time>
      </trkpt>
      <trkpt lat="44.57056" lon="5.94837">
        <ele>1087</ele>
        <time>2022-11-06T17:51:09Z</time>
      </trkpt>
      <trkpt lat="44.57063" lon="5.9485">
        <ele>1090</ele>
        <time>2022-11-06T17:51:09Z</time>
      </trkpt>
      <trkpt lat="44.5708" lon="5.9487">
        <ele>1093</ele>
        <time>2022-11-06T17:51:09Z</time>
      </trkpt>
      <trkpt lat="44.57086" lon="5.94893">
        <ele>1096</ele>
        <time>2022-11-06T17:51:09Z</time>
      </trkpt>
      <trkpt lat="44.57092" lon="5.949">
        <ele>1097</ele>
        <time>2022-11-06T17:51:09Z</time>
      </trkpt>
      <trkpt lat="44.571" lon="5.94903">
        <ele>1097</ele>
        <time>2022-11-06T17:51:09Z</time>
      </trkpt>
      <trkpt lat="44.57107" lon="5.94898">
        <ele>1098</ele>
        <time>2022-11-06T17:51:09Z</time>
      </trkpt>
      <trkpt lat="44.57109" lon="5.94879">
        <ele>1099</ele>
        <time>2022-11-06T17:51:09Z</time>
      </trkpt>
      <trkpt lat="44.57108" lon="5.94869">
        <ele>1100</ele>
        <time>2022-11-06T17:51:09Z</time>
      </trkpt>
      <trkpt lat="44.571" lon="5.94847">
        <ele>1101</ele>
        <time>2022-11-06T17:51:09Z</time>
      </trkpt>
      <trkpt lat="44.57098" lon="5.94833">
        <ele>1103</ele>
        <time>2022-11-06T17:51:09Z</time>
      </trkpt>
      <trkpt lat="44.57103" lon="5.94808">
        <ele>1105</ele>
        <time>2022-11-06T17:51:09Z</time>
      </trkpt>
      <trkpt lat="44.57107" lon="5.94797">
        <ele>1106</ele>
        <time>2022-11-06T17:51:09Z</time>
      </trkpt>
      <trkpt lat="44.57109" lon="5.94779">
        <ele>1108</ele>
        <time>2022-11-06T17:51:09Z</time>
      </trkpt>
      <trkpt lat="44.57108" lon="5.94708">
        <ele>1114</ele>
        <time>2022-11-06T17:51:09Z</time>
      </trkpt>
      <trkpt lat="44.5711" lon="5.94696">
        <ele>1115</ele>
        <time>2022-11-06T17:51:09Z</time>
      </trkpt>
      <trkpt lat="44.57119" lon="5.94668">
        <ele>1118</ele>
        <time>2022-11-06T17:51:09Z</time>
      </trkpt>
      <trkpt lat="44.57114" lon="5.94652">
        <ele>1120</ele>
        <time>2022-11-06T17:51:09Z</time>
      </trkpt>
      <trkpt lat="44.57112" lon="5.94633">
        <ele>1121</ele>
        <time>2022-11-06T17:51:09Z</time>
      </trkpt>
      <trkpt lat="44.5711" lon="5.94611">
        <ele>1123</ele>
        <time>2022-11-06T17:51:09Z</time>
      </trkpt>
      <trkpt lat="44.5708" lon="5.94563">
        <ele>1126</ele>
        <time>2022-11-06T17:51:09Z</time>
      </trkpt>
      <trkpt lat="44.57071" lon="5.94524">
        <ele>1128</ele>
        <time>2022-11-06T17:51:09Z</time>
      </trkpt>
      <trkpt lat="44.57069" lon="5.9449">
        <ele>1130</ele>
        <time>2022-11-06T17:51:09Z</time>
      </trkpt>
      <trkpt lat="44.57068" lon="5.9443">
        <ele>1136</ele>
        <time>2022-11-06T17:51:09Z</time>
      </trkpt>
      <trkpt lat="44.57062" lon="5.94401">
        <ele>1138</ele>
        <time>2022-11-06T17:51:09Z</time>
      </trkpt>
      <trkpt lat="44.57041" lon="5.94324">
        <ele>1146</ele>
        <time>2022-11-06T17:51:09Z</time>
      </trkpt>
      <trkpt lat="44.57038" lon="5.94268">
        <ele>1151</ele>
        <time>2022-11-06T17:51:09Z</time>
      </trkpt>
      <trkpt lat="44.57064" lon="5.93962">
        <ele>1171</ele>
        <time>2022-11-06T17:51:09Z</time>
      </trkpt>
      <trkpt lat="44.57071" lon="5.9394">
        <ele>1172</ele>
        <time>2022-11-06T17:51:09Z</time>
      </trkpt>
      <trkpt lat="44.57102" lon="5.93894">
        <ele>1176</ele>
        <time>2022-11-06T17:51:09Z</time>
      </trkpt>
      <trkpt lat="44.57111" lon="5.93886">
        <ele>1178</ele>
        <time>2022-11-06T17:51:09Z</time>
      </trkpt>
      <trkpt lat="44.57138" lon="5.93878">
        <ele>1182</ele>
        <time>2022-11-06T17:51:09Z</time>
      </trkpt>
      <trkpt lat="44.57186" lon="5.9387">
        <ele>1187</ele>
        <time>2022-11-06T17:51:09Z</time>
      </trkpt>
      <trkpt lat="44.57224" lon="5.93857">
        <ele>1191</ele>
        <time>2022-11-06T17:51:09Z</time>
      </trkpt>
      <trkpt lat="44.57244" lon="5.93858">
        <ele>1193</ele>
        <time>2022-11-06T17:51:09Z</time>
      </trkpt>
      <trkpt lat="44.57264" lon="5.93862">
        <ele>1196</ele>
        <time>2022-11-06T17:51:09Z</time>
      </trkpt>
      <trkpt lat="44.57279" lon="5.93857">
        <ele>1197</ele>
        <time>2022-11-06T17:51:09Z</time>
      </trkpt>
      <trkpt lat="44.57299" lon="5.93841">
        <ele>1199</ele>
        <time>2022-11-06T17:51:09Z</time>
      </trkpt>
      <trkpt lat="44.57305" lon="5.93834">
        <ele>1199</ele>
        <time>2022-11-06T17:51:09Z</time>
      </trkpt>
      <trkpt lat="44.57307" lon="5.93821">
        <ele>1200</ele>
        <time>2022-11-06T17:51:09Z</time>
      </trkpt>
      <trkpt lat="44.57299" lon="5.93809">
        <ele>1201</ele>
        <time>2022-11-06T17:51:09Z</time>
      </trkpt>
      <trkpt lat="44.57281" lon="5.93812">
        <ele>1203</ele>
        <time>2022-11-06T17:51:09Z</time>
      </trkpt>
      <trkpt lat="44.57244" lon="5.93769">
        <ele>1206</ele>
        <time>2022-11-06T17:51:09Z</time>
      </trkpt>
      <trkpt lat="44.57235" lon="5.93752">
        <ele>1207</ele>
        <time>2022-11-06T17:51:09Z</time>
      </trkpt>
      <trkpt lat="44.57232" lon="5.93737">
        <ele>1208</ele>
        <time>2022-11-06T17:51:09Z</time>
      </trkpt>
      <trkpt lat="44.57275" lon="5.93597">
        <ele>1217</ele>
        <time>2022-11-06T17:51:09Z</time>
      </trkpt>
      <trkpt lat="44.57289" lon="5.93565">
        <ele>1221</ele>
        <time>2022-11-06T17:51:09Z</time>
      </trkpt>
      <trkpt lat="44.57324" lon="5.93507">
        <ele>1226</ele>
        <time>2022-11-06T17:51:09Z</time>
      </trkpt>
      <trkpt lat="44.57343" lon="5.93421">
        <ele>1231</ele>
        <time>2022-11-06T17:51:09Z</time>
      </trkpt>
      <trkpt lat="44.57345" lon="5.93383">
        <ele>1234</ele>
        <time>2022-11-06T17:51:09Z</time>
      </trkpt>
      <trkpt lat="44.57347" lon="5.93329">
        <ele>1239</ele>
        <time>2022-11-06T17:51:09Z</time>
      </trkpt>
      <trkpt lat="44.57356" lon="5.93296">
        <ele>1241</ele>
        <time>2022-11-06T17:51:09Z</time>
      </trkpt>
      <trkpt lat="44.57361" lon="5.93286">
        <ele>1242</ele>
        <time>2022-11-06T17:51:09Z</time>
      </trkpt>
      <trkpt lat="44.5738" lon="5.93269">
        <ele>1244</ele>
        <time>2022-11-06T17:51:09Z</time>
      </trkpt>
      <trkpt lat="44.57391" lon="5.93267">
        <ele>1246</ele>
        <time>2022-11-06T17:51:09Z</time>
      </trkpt>
      <trkpt lat="44.57415" lon="5.93267">
        <ele>1248</ele>
        <time>2022-11-06T17:51:09Z</time>
      </trkpt>
      <trkpt lat="44.57428" lon="5.9327">
        <ele>1249</ele>
        <time>2022-11-06T17:51:09Z</time>
      </trkpt>
      <trkpt lat="44.57433" lon="5.93278">
        <ele>1250</ele>
        <time>2022-11-06T17:51:09Z</time>
      </trkpt>
      <trkpt lat="44.57434" lon="5.93293">
        <ele>1251</ele>
        <time>2022-11-06T17:51:09Z</time>
      </trkpt>
      <trkpt lat="44.57442" lon="5.93318">
        <ele>1253</ele>
        <time>2022-11-06T17:51:09Z</time>
      </trkpt>
      <trkpt lat="44.57442" lon="5.93345">
        <ele>1255</ele>
        <time>2022-11-06T17:51:09Z</time>
      </trkpt>
      <trkpt lat="44.57445" lon="5.93362">
        <ele>1256</ele>
        <time>2022-11-06T17:51:09Z</time>
      </trkpt>
      <trkpt lat="44.57443" lon="5.93393">
        <ele>1257</ele>
        <time>2022-11-06T17:51:09Z</time>
      </trkpt>
      <trkpt lat="44.57444" lon="5.93404">
        <ele>1258</ele>
        <time>2022-11-06T17:51:09Z</time>
      </trkpt>
      <trkpt lat="44.5744" lon="5.93417">
        <ele>1258</ele>
        <time>2022-11-06T17:51:09Z</time>
      </trkpt>
      <trkpt lat="44.57418" lon="5.93467">
        <ele>1259</ele>
        <time>2022-11-06T17:51:09Z</time>
      </trkpt>
      <trkpt lat="44.57416" lon="5.9348">
        <ele>1259</ele>
        <time>2022-11-06T17:51:09Z</time>
      </trkpt>
      <trkpt lat="44.57422" lon="5.93519">
        <ele>1260</ele>
        <time>2022-11-06T17:51:09Z</time>
      </trkpt>
      <trkpt lat="44.57426" lon="5.93529">
        <ele>1261</ele>
        <time>2022-11-06T17:51:09Z</time>
      </trkpt>
      <trkpt lat="44.57444" lon="5.93553">
        <ele>1263</ele>
        <time>2022-11-06T17:51:09Z</time>
      </trkpt>
      <trkpt lat="44.57459" lon="5.93556">
        <ele>1266</ele>
        <time>2022-11-06T17:51:09Z</time>
      </trkpt>
      <trkpt lat="44.57471" lon="5.93551">
        <ele>1267</ele>
        <time>2022-11-06T17:51:09Z</time>
      </trkpt>
      <trkpt lat="44.57495" lon="5.93527">
        <ele>1269</ele>
        <time>2022-11-06T17:51:10Z</time>
      </trkpt>
      <trkpt lat="44.57517" lon="5.9352">
        <ele>1271</ele>
        <time>2022-11-06T17:51:10Z</time>
      </trkpt>
      <trkpt lat="44.57559" lon="5.9352">
        <ele>1274</ele>
        <time>2022-11-06T17:51:10Z</time>
      </trkpt>
      <trkpt lat="44.57578" lon="5.93517">
        <ele>1276</ele>
        <time>2022-11-06T17:51:10Z</time>
      </trkpt>
      <trkpt lat="44.57605" lon="5.93509">
        <ele>1279</ele>
        <time>2022-11-06T17:51:10Z</time>
      </trkpt>
      <trkpt lat="44.57614" lon="5.9352">
        <ele>1281</ele>
        <time>2022-11-06T17:51:10Z</time>
      </trkpt>
      <trkpt lat="44.57616" lon="5.93544">
        <ele>1282</ele>
        <time>2022-11-06T17:51:10Z</time>
      </trkpt>
      <trkpt lat="44.57593" lon="5.93579">
        <ele>1283</ele>
        <time>2022-11-06T17:51:10Z</time>
      </trkpt>
      <trkpt lat="44.57565" lon="5.93601">
        <ele>1286</ele>
        <time>2022-11-06T17:51:10Z</time>
      </trkpt>
      <trkpt lat="44.57535" lon="5.93612">
        <ele>1287</ele>
        <time>2022-11-06T17:51:10Z</time>
      </trkpt>
      <trkpt lat="44.57534" lon="5.93624">
        <ele>1287</ele>
        <time>2022-11-06T17:51:10Z</time>
      </trkpt>
      <trkpt lat="44.57544" lon="5.93633">
        <ele>1288</ele>
        <time>2022-11-06T17:51:10Z</time>
      </trkpt>
      <trkpt lat="44.5758" lon="5.93625">
        <ele>1291</ele>
        <time>2022-11-06T17:51:10Z</time>
      </trkpt>
      <trkpt lat="44.57674" lon="5.93645">
        <ele>1298</ele>
        <time>2022-11-06T17:51:10Z</time>
      </trkpt>
      <trkpt lat="44.57731" lon="5.93643">
        <ele>1301</ele>
        <time>2022-11-06T17:51:10Z</time>
      </trkpt>
      <trkpt lat="44.57751" lon="5.9365">
        <ele>1303</ele>
        <time>2022-11-06T17:51:10Z</time>
      </trkpt>
      <trkpt lat="44.57774" lon="5.93647">
        <ele>1304</ele>
        <time>2022-11-06T17:51:10Z</time>
      </trkpt>
      <trkpt lat="44.5778" lon="5.9364">
        <ele>1304</ele>
        <time>2022-11-06T17:51:10Z</time>
      </trkpt>
      <trkpt lat="44.57807" lon="5.93587">
        <ele>1305</ele>
        <time>2022-11-06T17:51:10Z</time>
      </trkpt>
      <trkpt lat="44.57815" lon="5.9353">
        <ele>1306</ele>
        <time>2022-11-06T17:51:10Z</time>
      </trkpt>
      <trkpt lat="44.5782" lon="5.93512">
        <ele>1307</ele>
        <time>2022-11-06T17:51:10Z</time>
      </trkpt>
      <trkpt lat="44.57826" lon="5.93503">
        <ele>1308</ele>
        <time>2022-11-06T17:51:10Z</time>
      </trkpt>
      <trkpt lat="44.57843" lon="5.93485">
        <ele>1309</ele>
        <time>2022-11-06T17:51:10Z</time>
      </trkpt>
      <trkpt lat="44.57863" lon="5.93417">
        <ele>1310</ele>
        <time>2022-11-06T17:51:10Z</time>
      </trkpt>
      <trkpt lat="44.5787" lon="5.93407">
        <ele>1311</ele>
        <time>2022-11-06T17:51:10Z</time>
      </trkpt>
      <trkpt lat="44.57942" lon="5.93361">
        <ele>1315</ele>
        <time>2022-11-06T17:51:10Z</time>
      </trkpt>
      <trkpt lat="44.5796" lon="5.93358">
        <ele>1316</ele>
        <time>2022-11-06T17:51:10Z</time>
      </trkpt>
      <trkpt lat="44.57971" lon="5.93361">
        <ele>1316</ele>
        <time>2022-11-06T17:51:10Z</time>
      </trkpt>
      <trkpt lat="44.58005" lon="5.93391">
        <ele>1319</ele>
        <time>2022-11-06T17:51:10Z</time>
      </trkpt>
      <trkpt lat="44.58013" lon="5.93389">
        <ele>1319</ele>
        <time>2022-11-06T17:51:10Z</time>
      </trkpt>
      <trkpt lat="44.58031" lon="5.93408">
        <ele>1320</ele>
        <time>2022-11-06T17:51:10Z</time>
      </trkpt>
      <trkpt lat="44.58178" lon="5.9343">
        <ele>1331</ele>
        <time>2022-11-06T17:51:10Z</time>
      </trkpt>
      <trkpt lat="44.58189" lon="5.93437">
        <ele>1332</ele>
        <time>2022-11-06T17:51:10Z</time>
      </trkpt>
      <trkpt lat="44.58198" lon="5.93446">
        <ele>1333</ele>
        <time>2022-11-06T17:51:10Z</time>
      </trkpt>
      <trkpt lat="44.58202" lon="5.93455">
        <ele>1335</ele>
        <time>2022-11-06T17:51:10Z</time>
      </trkpt>
      <trkpt lat="44.58224" lon="5.93473">
        <ele>1338</ele>
        <time>2022-11-06T17:51:10Z</time>
      </trkpt>
      <trkpt lat="44.58269" lon="5.93458">
        <ele>1343</ele>
        <time>2022-11-06T17:51:10Z</time>
      </trkpt>
      <trkpt lat="44.58301" lon="5.93437">
        <ele>1348</ele>
        <time>2022-11-06T17:51:10Z</time>
      </trkpt>
      <trkpt lat="44.58308" lon="5.93435">
        <ele>1349</ele>
        <time>2022-11-06T17:51:10Z</time>
      </trkpt>
      <trkpt lat="44.58319" lon="5.93437">
        <ele>1351</ele>
        <time>2022-11-06T17:51:10Z</time>
      </trkpt>
      <trkpt lat="44.58336" lon="5.93449">
        <ele>1354</ele>
        <time>2022-11-06T17:51:10Z</time>
      </trkpt>
      <trkpt lat="44.58344" lon="5.93444">
        <ele>1356</ele>
        <time>2022-11-06T17:51:10Z</time>
      </trkpt>
      <trkpt lat="44.5836" lon="5.93444">
        <ele>1357</ele>
        <time>2022-11-06T17:51:10Z</time>
      </trkpt>
      <trkpt lat="44.58368" lon="5.93446">
        <ele>1358</ele>
        <time>2022-11-06T17:51:10Z</time>
      </trkpt>
      <trkpt lat="44.58391" lon="5.93469">
        <ele>1362</ele>
        <time>2022-11-06T17:51:10Z</time>
      </trkpt>
      <trkpt lat="44.58398" lon="5.93489">
        <ele>1364</ele>
        <time>2022-11-06T17:51:10Z</time>
      </trkpt>
      <trkpt lat="44.58405" lon="5.93521">
        <ele>1367</ele>
        <time>2022-11-06T17:51:10Z</time>
      </trkpt>
      <trkpt lat="44.58409" lon="5.93531">
        <ele>1368</ele>
        <time>2022-11-06T17:51:10Z</time>
      </trkpt>
      <trkpt lat="44.58424" lon="5.93564">
        <ele>1372</ele>
        <time>2022-11-06T17:51:10Z</time>
      </trkpt>
      <trkpt lat="44.58435" lon="5.93584">
        <ele>1374</ele>
        <time>2022-11-06T17:51:10Z</time>
      </trkpt>
      <trkpt lat="44.5844" lon="5.93604">
        <ele>1377</ele>
        <time>2022-11-06T17:51:10Z</time>
      </trkpt>
      <trkpt lat="44.58445" lon="5.93616">
        <ele>1378</ele>
        <time>2022-11-06T17:51:10Z</time>
      </trkpt>
      <trkpt lat="44.58446" lon="5.93631">
        <ele>1379</ele>
        <time>2022-11-06T17:51:10Z</time>
      </trkpt>
      <trkpt lat="44.58452" lon="5.93641">
        <ele>1381</ele>
        <time>2022-11-06T17:51:10Z</time>
      </trkpt>
      <trkpt lat="44.58457" lon="5.9365">
        <ele>1383</ele>
        <time>2022-11-06T17:51:10Z</time>
      </trkpt>
      <trkpt lat="44.58521" lon="5.93699">
        <ele>1393</ele>
        <time>2022-11-06T17:51:10Z</time>
      </trkpt>
      <trkpt lat="44.58538" lon="5.93706">
        <ele>1395</ele>
        <time>2022-11-06T17:51:10Z</time>
      </trkpt>
      <trkpt lat="44.58554" lon="5.93724">
        <ele>1398</ele>
        <time>2022-11-06T17:51:10Z</time>
      </trkpt>
      <trkpt lat="44.5863" lon="5.9377">
        <ele>1410</ele>
        <time>2022-11-06T17:51:10Z</time>
      </trkpt>
      <trkpt lat="44.5865" lon="5.93794">
        <ele>1413</ele>
        <time>2022-11-06T17:51:10Z</time>
      </trkpt>
      <trkpt lat="44.58665" lon="5.93806">
        <ele>1415</ele>
        <time>2022-11-06T17:51:10Z</time>
      </trkpt>
      <trkpt lat="44.58672" lon="5.93818">
        <ele>1416</ele>
        <time>2022-11-06T17:51:10Z</time>
      </trkpt>
      <trkpt lat="44.58684" lon="5.93826">
        <ele>1418</ele>
        <time>2022-11-06T17:51:10Z</time>
      </trkpt>
      <trkpt lat="44.58731" lon="5.93862">
        <ele>1426</ele>
        <time>2022-11-06T17:51:10Z</time>
      </trkpt>
      <trkpt lat="44.58763" lon="5.93871">
        <ele>1431</ele>
        <time>2022-11-06T17:51:10Z</time>
      </trkpt>
      <trkpt lat="44.58785" lon="5.93897">
        <ele>1437</ele>
        <time>2022-11-06T17:51:10Z</time>
      </trkpt>
      <trkpt lat="44.58796" lon="5.93915">
        <ele>1439</ele>
        <time>2022-11-06T17:51:10Z</time>
      </trkpt>
      <trkpt lat="44.58808" lon="5.9393">
        <ele>1442</ele>
        <time>2022-11-06T17:51:10Z</time>
      </trkpt>
      <trkpt lat="44.58817" lon="5.93942">
        <ele>1444</ele>
        <time>2022-11-06T17:51:10Z</time>
      </trkpt>
      <trkpt lat="44.58821" lon="5.93966">
        <ele>1446</ele>
        <time>2022-11-06T17:51:10Z</time>
      </trkpt>
      <trkpt lat="44.58821" lon="5.9398">
        <ele>1448</ele>
        <time>2022-11-06T17:51:10Z</time>
      </trkpt>
      <trkpt lat="44.58829" lon="5.94003">
        <ele>1450</ele>
        <time>2022-11-06T17:51:10Z</time>
      </trkpt>
      <trkpt lat="44.58831" lon="5.94031">
        <ele>1453</ele>
        <time>2022-11-06T17:51:10Z</time>
      </trkpt>
      <trkpt lat="44.58833" lon="5.94041">
        <ele>1454</ele>
        <time>2022-11-06T17:51:10Z</time>
      </trkpt>
      <trkpt lat="44.58829" lon="5.94078">
        <ele>1458</ele>
        <time>2022-11-06T17:51:10Z</time>
      </trkpt>
      <trkpt lat="44.5883" lon="5.94088">
        <ele>1459</ele>
        <time>2022-11-06T17:51:10Z</time>
      </trkpt>
      <trkpt lat="44.58829" lon="5.941">
        <ele>1460</ele>
        <time>2022-11-06T17:51:10Z</time>
      </trkpt>
      <trkpt lat="44.5883" lon="5.94113">
        <ele>1461</ele>
        <time>2022-11-06T17:51:10Z</time>
      </trkpt>
      <trkpt lat="44.5883" lon="5.9414">
        <ele>1463</ele>
        <time>2022-11-06T17:51:10Z</time>
      </trkpt>
      <trkpt lat="44.58836" lon="5.94155">
        <ele>1464</ele>
        <time>2022-11-06T17:51:10Z</time>
      </trkpt>
      <trkpt lat="44.58841" lon="5.94169">
        <ele>1467</ele>
        <time>2022-11-06T17:51:10Z</time>
      </trkpt>
      <trkpt lat="44.5885" lon="5.94192">
        <ele>1470</ele>
        <time>2022-11-06T17:51:10Z</time>
      </trkpt>
      <trkpt lat="44.58859" lon="5.94205">
        <ele>1471</ele>
        <time>2022-11-06T17:51:10Z</time>
      </trkpt>
      <trkpt lat="44.58871" lon="5.94228">
        <ele>1475</ele>
        <time>2022-11-06T17:51:10Z</time>
      </trkpt>
      <trkpt lat="44.589" lon="5.9426">
        <ele>1480</ele>
        <time>2022-11-06T17:51:10Z</time>
      </trkpt>
      <trkpt lat="44.58915" lon="5.94274">
        <ele>1483</ele>
        <time>2022-11-06T17:51:10Z</time>
      </trkpt>
      <trkpt lat="44.58928" lon="5.94294">
        <ele>1486</ele>
        <time>2022-11-06T17:51:10Z</time>
      </trkpt>
      <trkpt lat="44.58965" lon="5.94333">
        <ele>1494</ele>
        <time>2022-11-06T17:51:10Z</time>
      </trkpt>
      <trkpt lat="44.58995" lon="5.94339">
        <ele>1498</ele>
        <time>2022-11-06T17:51:10Z</time>
      </trkpt>
      <trkpt lat="44.5901" lon="5.9435">
        <ele>1500</ele>
        <time>2022-11-06T17:51:10Z</time>
      </trkpt>
      <trkpt lat="44.5902" lon="5.94367">
        <ele>1503</ele>
        <time>2022-11-06T17:51:10Z</time>
      </trkpt>
      <trkpt lat="44.59029" lon="5.94389">
        <ele>1505</ele>
        <time>2022-11-06T17:51:10Z</time>
      </trkpt>
      <trkpt lat="44.59037" lon="5.94401">
        <ele>1507</ele>
        <time>2022-11-06T17:51:10Z</time>
      </trkpt>
      <trkpt lat="44.59073" lon="5.94425">
        <ele>1512</ele>
        <time>2022-11-06T17:51:10Z</time>
      </trkpt>
      <trkpt lat="44.59081" lon="5.94433">
        <ele>1514</ele>
        <time>2022-11-06T17:51:10Z</time>
      </trkpt>
      <trkpt lat="44.59102" lon="5.94438">
        <ele>1517</ele>
        <time>2022-11-06T17:51:10Z</time>
      </trkpt>
      <trkpt lat="44.59134" lon="5.94447">
        <ele>1522</ele>
        <time>2022-11-06T17:51:10Z</time>
      </trkpt>
      <trkpt lat="44.59169" lon="5.94441">
        <ele>1527</ele>
        <time>2022-11-06T17:51:10Z</time>
      </trkpt>
      <trkpt lat="44.59193" lon="5.94448">
        <ele>1530</ele>
        <time>2022-11-06T17:51:10Z</time>
      </trkpt>
      <trkpt lat="44.59203" lon="5.94457">
        <ele>1532</ele>
        <time>2022-11-06T17:51:10Z</time>
      </trkpt>
      <trkpt lat="44.59219" lon="5.9446">
        <ele>1535</ele>
        <time>2022-11-06T17:51:10Z</time>
      </trkpt>
      <trkpt lat="44.59235" lon="5.9446">
        <ele>1538</ele>
        <time>2022-11-06T17:51:10Z</time>
      </trkpt>
      <trkpt lat="44.59243" lon="5.94465">
        <ele>1539</ele>
        <time>2022-11-06T17:51:10Z</time>
      </trkpt>
      <trkpt lat="44.59276" lon="5.94509">
        <ele>1546</ele>
        <time>2022-11-06T17:51:10Z</time>
      </trkpt>
      <trkpt lat="44.59278" lon="5.9452">
        <ele>1546</ele>
        <time>2022-11-06T17:51:10Z</time>
      </trkpt>
      <trkpt lat="44.59272" lon="5.94602">
        <ele>1555</ele>
        <time>2022-11-06T17:51:10Z</time>
      </trkpt>
      <trkpt lat="44.59278" lon="5.94618">
        <ele>1556</ele>
        <time>2022-11-06T17:51:10Z</time>
      </trkpt>
      <trkpt lat="44.59284" lon="5.94625">
        <ele>1557</ele>
        <time>2022-11-06T17:51:10Z</time>
      </trkpt>
      <trkpt lat="44.59292" lon="5.94638">
        <ele>1559</ele>
        <time>2022-11-06T17:51:10Z</time>
      </trkpt>
      <trkpt lat="44.59297" lon="5.94649">
        <ele>1560</ele>
        <time>2022-11-06T17:51:10Z</time>
      </trkpt>
      <trkpt lat="44.59302" lon="5.94658">
        <ele>1561</ele>
        <time>2022-11-06T17:51:10Z</time>
      </trkpt>
      <trkpt lat="44.59337" lon="5.94663">
        <ele>1564</ele>
        <time>2022-11-06T17:51:10Z</time>
      </trkpt>
      <trkpt lat="44.59364" lon="5.94685">
        <ele>1569</ele>
        <time>2022-11-06T17:51:10Z</time>
      </trkpt>
      <trkpt lat="44.59378" lon="5.94697">
        <ele>1572</ele>
        <time>2022-11-06T17:51:10Z</time>
      </trkpt>
      <trkpt lat="44.59387" lon="5.94701">
        <ele>1573</ele>
        <time>2022-11-06T17:51:10Z</time>
      </trkpt>
      <trkpt lat="44.59394" lon="5.94701">
        <ele>1574</ele>
        <time>2022-11-06T17:51:10Z</time>
      </trkpt>
      <trkpt lat="44.5947" lon="5.94716">
        <ele>1585</ele>
        <time>2022-11-06T17:51:10Z</time>
      </trkpt>
      <trkpt lat="44.59491" lon="5.9474">
        <ele>1589</ele>
        <time>2022-11-06T17:51:10Z</time>
      </trkpt>
      <trkpt lat="44.59507" lon="5.94775">
        <ele>1594</ele>
        <time>2022-11-06T17:51:10Z</time>
      </trkpt>
      <trkpt lat="44.59524" lon="5.94781">
        <ele>1596</ele>
        <time>2022-11-06T17:51:10Z</time>
      </trkpt>
      <trkpt lat="44.5955" lon="5.94802">
        <ele>1600</ele>
        <time>2022-11-06T17:51:10Z</time>
      </trkpt>
      <trkpt lat="44.59554" lon="5.94813">
        <ele>1601</ele>
        <time>2022-11-06T17:51:10Z</time>
      </trkpt>
      <trkpt lat="44.59558" lon="5.9484">
        <ele>1604</ele>
        <time>2022-11-06T17:51:10Z</time>
      </trkpt>
      <trkpt lat="44.59568" lon="5.94861">
        <ele>1607</ele>
        <time>2022-11-06T17:51:10Z</time>
      </trkpt>
      <trkpt lat="44.59571" lon="5.94872">
        <ele>1608</ele>
        <time>2022-11-06T17:51:10Z</time>
      </trkpt>
      <trkpt lat="44.59578" lon="5.94873">
        <ele>1610</ele>
        <time>2022-11-06T17:51:10Z</time>
      </trkpt>
      <trkpt lat="44.59595" lon="5.94858">
        <ele>1612</ele>
        <time>2022-11-06T17:51:10Z</time>
      </trkpt>
      <trkpt lat="44.59601" lon="5.9485">
        <ele>1613</ele>
        <time>2022-11-06T17:51:10Z</time>
      </trkpt>
      <trkpt lat="44.59623" lon="5.94847">
        <ele>1617</ele>
        <time>2022-11-06T17:51:10Z</time>
      </trkpt>
      <trkpt lat="44.59631" lon="5.94852">
        <ele>1618</ele>
        <time>2022-11-06T17:51:10Z</time>
      </trkpt>
      <trkpt lat="44.59651" lon="5.94886">
        <ele>1623</ele>
        <time>2022-11-06T17:51:10Z</time>
      </trkpt>
      <trkpt lat="44.59658" lon="5.94892">
        <ele>1625</ele>
        <time>2022-11-06T17:51:10Z</time>
      </trkpt>
      <trkpt lat="44.59682" lon="5.949">
        <ele>1627</ele>
        <time>2022-11-06T17:51:10Z</time>
      </trkpt>
      <trkpt lat="44.59712" lon="5.94901">
        <ele>1632</ele>
        <time>2022-11-06T17:51:10Z</time>
      </trkpt>
      <trkpt lat="44.59725" lon="5.94895">
        <ele>1633</ele>
        <time>2022-11-06T17:51:10Z</time>
      </trkpt>
      <trkpt lat="44.5977" lon="5.94909">
        <ele>1638</ele>
        <time>2022-11-06T17:51:10Z</time>
      </trkpt>
      <trkpt lat="44.59777" lon="5.94917">
        <ele>1640</ele>
        <time>2022-11-06T17:51:10Z</time>
      </trkpt>
      <trkpt lat="44.59787" lon="5.94926">
        <ele>1643</ele>
        <time>2022-11-06T17:51:10Z</time>
      </trkpt>
      <trkpt lat="44.59803" lon="5.94932">
        <ele>1645</ele>
        <time>2022-11-06T17:51:11Z</time>
      </trkpt>
      <trkpt lat="44.59811" lon="5.94929">
        <ele>1646</ele>
        <time>2022-11-06T17:51:11Z</time>
      </trkpt>
      <trkpt lat="44.59854" lon="5.94921">
        <ele>1652</ele>
        <time>2022-11-06T17:51:11Z</time>
      </trkpt>
      <trkpt lat="44.59886" lon="5.94909">
        <ele>1656</ele>
        <time>2022-11-06T17:51:11Z</time>
      </trkpt>
      <trkpt lat="44.59929" lon="5.94874">
        <ele>1662</ele>
        <time>2022-11-06T17:51:11Z</time>
      </trkpt>
      <trkpt lat="44.59943" lon="5.94863">
        <ele>1665</ele>
        <time>2022-11-06T17:51:11Z</time>
      </trkpt>
      <trkpt lat="44.59956" lon="5.94859">
        <ele>1666</ele>
        <time>2022-11-06T17:51:11Z</time>
      </trkpt>
      <trkpt lat="44.59964" lon="5.94864">
        <ele>1668</ele>
        <time>2022-11-06T17:51:11Z</time>
      </trkpt>
      <trkpt lat="44.59971" lon="5.94871">
        <ele>1669</ele>
        <time>2022-11-06T17:51:11Z</time>
      </trkpt>
      <trkpt lat="44.59981" lon="5.94879">
        <ele>1671</ele>
        <time>2022-11-06T17:51:11Z</time>
      </trkpt>
      <trkpt lat="44.5999" lon="5.94877">
        <ele>1672</ele>
        <time>2022-11-06T17:51:11Z</time>
      </trkpt>
      <trkpt lat="44.60008" lon="5.94869">
        <ele>1675</ele>
        <time>2022-11-06T17:51:11Z</time>
      </trkpt>
      <trkpt lat="44.60048" lon="5.94861">
        <ele>1681</ele>
        <time>2022-11-06T17:51:11Z</time>
      </trkpt>
      <trkpt lat="44.60068" lon="5.94854">
        <ele>1684</ele>
        <time>2022-11-06T17:51:11Z</time>
      </trkpt>
      <trkpt lat="44.60084" lon="5.94854">
        <ele>1686</ele>
        <time>2022-11-06T17:51:11Z</time>
      </trkpt>
      <trkpt lat="44.60124" lon="5.94877">
        <ele>1693</ele>
        <time>2022-11-06T17:51:11Z</time>
      </trkpt>
      <trkpt lat="44.60145" lon="5.94899">
        <ele>1697</ele>
        <time>2022-11-06T17:51:11Z</time>
      </trkpt>
      <trkpt lat="44.60156" lon="5.94917">
        <ele>1699</ele>
        <time>2022-11-06T17:51:11Z</time>
      </trkpt>
      <trkpt lat="44.60162" lon="5.94931">
        <ele>1701</ele>
        <time>2022-11-06T17:51:11Z</time>
      </trkpt>
      <trkpt lat="44.60176" lon="5.94947">
        <ele>1703</ele>
        <time>2022-11-06T17:51:11Z</time>
      </trkpt>
      <trkpt lat="44.60192" lon="5.94962">
        <ele>1706</ele>
        <time>2022-11-06T17:51:11Z</time>
      </trkpt>
      <trkpt lat="44.60199" lon="5.94963">
        <ele>1708</ele>
        <time>2022-11-06T17:51:11Z</time>
      </trkpt>
      <trkpt lat="44.60226" lon="5.94947">
        <ele>1711</ele>
        <time>2022-11-06T17:51:11Z</time>
      </trkpt>
      <trkpt lat="44.60244" lon="5.94933">
        <ele>1714</ele>
        <time>2022-11-06T17:51:11Z</time>
      </trkpt>
      <trkpt lat="44.60251" lon="5.94923">
        <ele>1715</ele>
        <time>2022-11-06T17:51:11Z</time>
      </trkpt>
      <trkpt lat="44.60264" lon="5.94916">
        <ele>1715</ele>
        <time>2022-11-06T17:51:11Z</time>
      </trkpt>
      <trkpt lat="44.60295" lon="5.9492">
        <ele>1719</ele>
        <time>2022-11-06T17:51:11Z</time>
      </trkpt>
      <trkpt lat="44.60304" lon="5.94928">
        <ele>1720</ele>
        <time>2022-11-06T17:51:11Z</time>
      </trkpt>
      <trkpt lat="44.6031" lon="5.94937">
        <ele>1722</ele>
        <time>2022-11-06T17:51:11Z</time>
      </trkpt>
      <trkpt lat="44.60309" lon="5.94947">
        <ele>1724</ele>
        <time>2022-11-06T17:51:11Z</time>
      </trkpt>
      <trkpt lat="44.60299" lon="5.94953">
        <ele>1725</ele>
        <time>2022-11-06T17:51:11Z</time>
      </trkpt>
      <trkpt lat="44.60273" lon="5.94961">
        <ele>1728</ele>
        <time>2022-11-06T17:51:11Z</time>
      </trkpt>
      <trkpt lat="44.60265" lon="5.94966">
        <ele>1730</ele>
        <time>2022-11-06T17:51:11Z</time>
      </trkpt>
      <trkpt lat="44.60259" lon="5.94975">
        <ele>1731</ele>
        <time>2022-11-06T17:51:11Z</time>
      </trkpt>
      <trkpt lat="44.60242" lon="5.95019">
        <ele>1736</ele>
        <time>2022-11-06T17:51:11Z</time>
      </trkpt>
      <trkpt lat="44.60244" lon="5.9503">
        <ele>1738</ele>
        <time>2022-11-06T17:51:11Z</time>
      </trkpt>
      <trkpt lat="44.60251" lon="5.9503">
        <ele>1740</ele>
        <time>2022-11-06T17:51:11Z</time>
      </trkpt>
      <trkpt lat="44.6027" lon="5.95021">
        <ele>1741</ele>
        <time>2022-11-06T17:51:11Z</time>
      </trkpt>
      <trkpt lat="44.60286" lon="5.95021">
        <ele>1744</ele>
        <time>2022-11-06T17:51:11Z</time>
      </trkpt>
      <trkpt lat="44.60306" lon="5.95014">
        <ele>1746</ele>
        <time>2022-11-06T17:51:11Z</time>
      </trkpt>
      <trkpt lat="44.60317" lon="5.95006">
        <ele>1747</ele>
        <time>2022-11-06T17:51:11Z</time>
      </trkpt>
      <trkpt lat="44.60338" lon="5.95004">
        <ele>1749</ele>
        <time>2022-11-06T17:51:11Z</time>
      </trkpt>
      <trkpt lat="44.60345" lon="5.95011">
        <ele>1751</ele>
        <time>2022-11-06T17:51:11Z</time>
      </trkpt>
      <trkpt lat="44.6035" lon="5.95019">
        <ele>1752</ele>
        <time>2022-11-06T17:51:11Z</time>
      </trkpt>
      <trkpt lat="44.60373" lon="5.95032">
        <ele>1756</ele>
        <time>2022-11-06T17:51:11Z</time>
      </trkpt>
      <trkpt lat="44.6039" lon="5.95037">
        <ele>1759</ele>
        <time>2022-11-06T17:51:11Z</time>
      </trkpt>
      <trkpt lat="44.60404" lon="5.95048">
        <ele>1762</ele>
        <time>2022-11-06T17:51:11Z</time>
      </trkpt>
      <trkpt lat="44.60409" lon="5.95059">
        <ele>1763</ele>
        <time>2022-11-06T17:51:11Z</time>
      </trkpt>
      <trkpt lat="44.60428" lon="5.95083">
        <ele>1767</ele>
        <time>2022-11-06T17:51:11Z</time>
      </trkpt>
      <trkpt lat="44.60435" lon="5.95087">
        <ele>1769</ele>
        <time>2022-11-06T17:51:11Z</time>
      </trkpt>
      <trkpt lat="44.60452" lon="5.95089">
        <ele>1771</ele>
        <time>2022-11-06T17:51:11Z</time>
      </trkpt>
      <trkpt lat="44.60474" lon="5.95082">
        <ele>1774</ele>
        <time>2022-11-06T17:51:11Z</time>
      </trkpt>
      <trkpt lat="44.60483" lon="5.95078">
        <ele>1776</ele>
        <time>2022-11-06T17:51:11Z</time>
      </trkpt>
      <trkpt lat="44.60501" lon="5.95057">
        <ele>1779</ele>
        <time>2022-11-06T17:51:11Z</time>
      </trkpt>
      <trkpt lat="44.60508" lon="5.95055">
        <ele>1780</ele>
        <time>2022-11-06T17:51:11Z</time>
      </trkpt>
      <trkpt lat="44.60584" lon="5.95059">
        <ele>1793</ele>
        <time>2022-11-06T17:51:11Z</time>
      </trkpt>
      <trkpt lat="44.60598" lon="5.95061">
        <ele>1795</ele>
        <time>2022-11-06T17:51:11Z</time>
      </trkpt>
      <trkpt lat="44.60605" lon="5.95065">
        <ele>1796</ele>
        <time>2022-11-06T17:51:11Z</time>
      </trkpt>
      <trkpt lat="44.60614" lon="5.95104">
        <ele>1798</ele>
        <time>2022-11-06T17:51:11Z</time>
      </trkpt>
      <trkpt lat="44.60617" lon="5.95127">
        <ele>1797</ele>
        <time>2022-11-06T17:51:11Z</time>
      </trkpt>
      <trkpt lat="44.60621" lon="5.95137">
        <ele>1796</ele>
        <time>2022-11-06T17:51:11Z</time>
      </trkpt>
      <trkpt lat="44.60629" lon="5.95136">
        <ele>1796</ele>
        <time>2022-11-06T17:51:11Z</time>
      </trkpt>
      <trkpt lat="44.60623" lon="5.95133">
        <ele>1796</ele>
        <time>2022-11-06T17:51:11Z</time>
      </trkpt>
      <trkpt lat="44.60608" lon="5.95094">
        <ele>1798</ele>
        <time>2022-11-06T17:51:11Z</time>
      </trkpt>
      <trkpt lat="44.60603" lon="5.95086">
        <ele>1797</ele>
        <time>2022-11-06T17:51:11Z</time>
      </trkpt>
      <trkpt lat="44.60593" lon="5.95066">
        <ele>1795</ele>
        <time>2022-11-06T17:51:11Z</time>
      </trkpt>
      <trkpt lat="44.60602" lon="5.95061">
        <ele>1795</ele>
        <time>2022-11-06T17:51:11Z</time>
      </trkpt>
      <trkpt lat="44.60596" lon="5.95057">
        <ele>1794</ele>
        <time>2022-11-06T17:51:11Z</time>
      </trkpt>
      <trkpt lat="44.60598" lon="5.95042">
        <ele>1794</ele>
        <time>2022-11-06T17:51:11Z</time>
      </trkpt>
      <trkpt lat="44.60602" lon="5.95032">
        <ele>1793</ele>
        <time>2022-11-06T17:51:11Z</time>
      </trkpt>
      <trkpt lat="44.60607" lon="5.95025">
        <ele>1792</ele>
        <time>2022-11-06T17:51:11Z</time>
      </trkpt>
      <trkpt lat="44.60611" lon="5.95015">
        <ele>1791</ele>
        <time>2022-11-06T17:51:11Z</time>
      </trkpt>
      <trkpt lat="44.60632" lon="5.94987">
        <ele>1789</ele>
        <time>2022-11-06T17:51:11Z</time>
      </trkpt>
      <trkpt lat="44.60635" lon="5.94977">
        <ele>1787</ele>
        <time>2022-11-06T17:51:11Z</time>
      </trkpt>
      <trkpt lat="44.60633" lon="5.94966">
        <ele>1787</ele>
        <time>2022-11-06T17:51:11Z</time>
      </trkpt>
      <trkpt lat="44.60637" lon="5.94957">
        <ele>1786</ele>
        <time>2022-11-06T17:51:11Z</time>
      </trkpt>
      <trkpt lat="44.60641" lon="5.94942">
        <ele>1784</ele>
        <time>2022-11-06T17:51:11Z</time>
      </trkpt>
      <trkpt lat="44.60648" lon="5.94935">
        <ele>1784</ele>
        <time>2022-11-06T17:51:11Z</time>
      </trkpt>
      <trkpt lat="44.60655" lon="5.94902">
        <ele>1785</ele>
        <time>2022-11-06T17:51:11Z</time>
      </trkpt>
      <trkpt lat="44.60659" lon="5.94891">
        <ele>1785</ele>
        <time>2022-11-06T17:51:11Z</time>
      </trkpt>
      <trkpt lat="44.60654" lon="5.94867">
        <ele>1784</ele>
        <time>2022-11-06T17:51:11Z</time>
      </trkpt>
      <trkpt lat="44.6065" lon="5.94858">
        <ele>1782</ele>
        <time>2022-11-06T17:51:11Z</time>
      </trkpt>
      <trkpt lat="44.60637" lon="5.94847">
        <ele>1781</ele>
        <time>2022-11-06T17:51:11Z</time>
      </trkpt>
      <trkpt lat="44.60625" lon="5.94842">
        <ele>1780</ele>
        <time>2022-11-06T17:51:11Z</time>
      </trkpt>
      <trkpt lat="44.60622" lon="5.94827">
        <ele>1780</ele>
        <time>2022-11-06T17:51:11Z</time>
      </trkpt>
      <trkpt lat="44.60623" lon="5.94811">
        <ele>1780</ele>
        <time>2022-11-06T17:51:11Z</time>
      </trkpt>
      <trkpt lat="44.60614" lon="5.94806">
        <ele>1780</ele>
        <time>2022-11-06T17:51:11Z</time>
      </trkpt>
      <trkpt lat="44.60603" lon="5.94806">
        <ele>1779</ele>
        <time>2022-11-06T17:51:11Z</time>
      </trkpt>
      <trkpt lat="44.60595" lon="5.948">
        <ele>1778</ele>
        <time>2022-11-06T17:51:11Z</time>
      </trkpt>
      <trkpt lat="44.60591" lon="5.94789">
        <ele>1780</ele>
        <time>2022-11-06T17:51:11Z</time>
      </trkpt>
      <trkpt lat="44.60595" lon="5.94772">
        <ele>1780</ele>
        <time>2022-11-06T17:51:11Z</time>
      </trkpt>
      <trkpt lat="44.60594" lon="5.94757">
        <ele>1780</ele>
        <time>2022-11-06T17:51:11Z</time>
      </trkpt>
      <trkpt lat="44.60586" lon="5.94751">
        <ele>1779</ele>
        <time>2022-11-06T17:51:11Z</time>
      </trkpt>
      <trkpt lat="44.60579" lon="5.94752">
        <ele>1779</ele>
        <time>2022-11-06T17:51:11Z</time>
      </trkpt>
      <trkpt lat="44.60564" lon="5.94744">
        <ele>1779</ele>
        <time>2022-11-06T17:51:11Z</time>
      </trkpt>
      <trkpt lat="44.60548" lon="5.9474">
        <ele>1778</ele>
        <time>2022-11-06T17:51:12Z</time>
      </trkpt>
      <trkpt lat="44.60533" lon="5.94729">
        <ele>1778</ele>
        <time>2022-11-06T17:51:12Z</time>
      </trkpt>
      <trkpt lat="44.60476" lon="5.94615">
        <ele>1775</ele>
        <time>2022-11-06T17:51:12Z</time>
      </trkpt>
      <trkpt lat="44.60473" lon="5.94604">
        <ele>1775</ele>
        <time>2022-11-06T17:51:12Z</time>
      </trkpt>
      <trkpt lat="44.60458" lon="5.94579">
        <ele>1775</ele>
        <time>2022-11-06T17:51:12Z</time>
      </trkpt>
      <trkpt lat="44.60474" lon="5.94562">
        <ele>1774</ele>
        <time>2022-11-06T17:51:12Z</time>
      </trkpt>
      <trkpt lat="44.6048" lon="5.94552">
        <ele>1774</ele>
        <time>2022-11-06T17:51:12Z</time>
      </trkpt>
      <trkpt lat="44.60486" lon="5.94527">
        <ele>1772</ele>
        <time>2022-11-06T17:51:12Z</time>
      </trkpt>
      <trkpt lat="44.60492" lon="5.94519">
        <ele>1772</ele>
        <time>2022-11-06T17:51:12Z</time>
      </trkpt>
      <trkpt lat="44.60492" lon="5.94491">
        <ele>1772</ele>
        <time>2022-11-06T17:51:12Z</time>
      </trkpt>
      <trkpt lat="44.60486" lon="5.94468">
        <ele>1771</ele>
        <time>2022-11-06T17:51:12Z</time>
      </trkpt>
      <trkpt lat="44.60493" lon="5.94454">
        <ele>1770</ele>
        <time>2022-11-06T17:51:12Z</time>
      </trkpt>
      <trkpt lat="44.60501" lon="5.94453">
        <ele>1770</ele>
        <time>2022-11-06T17:51:12Z</time>
      </trkpt>
      <trkpt lat="44.60502" lon="5.94438">
        <ele>1770</ele>
        <time>2022-11-06T17:51:12Z</time>
      </trkpt>
      <trkpt lat="44.60509" lon="5.94414">
        <ele>1768</ele>
        <time>2022-11-06T17:51:12Z</time>
      </trkpt>
      <trkpt lat="44.60516" lon="5.94412">
        <ele>1767</ele>
        <time>2022-11-06T17:51:12Z</time>
      </trkpt>
      <trkpt lat="44.60522" lon="5.94399">
        <ele>1767</ele>
        <time>2022-11-06T17:51:12Z</time>
      </trkpt>
      <trkpt lat="44.60531" lon="5.94398">
        <ele>1768</ele>
        <time>2022-11-06T17:51:12Z</time>
      </trkpt>
      <trkpt lat="44.60524" lon="5.9435">
        <ele>1764</ele>
        <time>2022-11-06T17:51:12Z</time>
      </trkpt>
      <trkpt lat="44.60528" lon="5.94339">
        <ele>1766</ele>
        <time>2022-11-06T17:51:12Z</time>
      </trkpt>
      <trkpt lat="44.60539" lon="5.94327">
        <ele>1764</ele>
        <time>2022-11-06T17:51:12Z</time>
      </trkpt>
      <trkpt lat="44.60544" lon="5.94317">
        <ele>1762</ele>
        <time>2022-11-06T17:51:12Z</time>
      </trkpt>
      <trkpt lat="44.60541" lon="5.94307">
        <ele>1760</ele>
        <time>2022-11-06T17:51:12Z</time>
      </trkpt>
      <trkpt lat="44.60524" lon="5.94302">
        <ele>1760</ele>
        <time>2022-11-06T17:51:12Z</time>
      </trkpt>
      <trkpt lat="44.60489" lon="5.94274">
        <ele>1758</ele>
        <time>2022-11-06T17:51:12Z</time>
      </trkpt>
      <trkpt lat="44.60478" lon="5.94269">
        <ele>1757</ele>
        <time>2022-11-06T17:51:12Z</time>
      </trkpt>
      <trkpt lat="44.6047" lon="5.94262">
        <ele>1757</ele>
        <time>2022-11-06T17:51:12Z</time>
      </trkpt>
      <trkpt lat="44.60459" lon="5.94265">
        <ele>1757</ele>
        <time>2022-11-06T17:51:12Z</time>
      </trkpt>
      <trkpt lat="44.60433" lon="5.94265">
        <ele>1756</ele>
        <time>2022-11-06T17:51:12Z</time>
      </trkpt>
      <trkpt lat="44.60426" lon="5.94268">
        <ele>1755</ele>
        <time>2022-11-06T17:51:12Z</time>
      </trkpt>
      <trkpt lat="44.60425" lon="5.94258">
        <ele>1756</ele>
        <time>2022-11-06T17:51:12Z</time>
      </trkpt>
      <trkpt lat="44.604" lon="5.94238">
        <ele>1756</ele>
        <time>2022-11-06T17:51:12Z</time>
      </trkpt>
      <trkpt lat="44.60398" lon="5.94237">
        <ele>1755</ele>
        <time>2022-11-06T17:51:12Z</time>
      </trkpt>
      <trkpt lat="44.60388" lon="5.94253">
        <ele>1753</ele>
        <time>2022-11-06T17:51:12Z</time>
      </trkpt>
      <trkpt lat="44.60381" lon="5.94258">
        <ele>1753</ele>
        <time>2022-11-06T17:51:12Z</time>
      </trkpt>
      <trkpt lat="44.60373" lon="5.94256">
        <ele>1752</ele>
        <time>2022-11-06T17:51:12Z</time>
      </trkpt>
      <trkpt lat="44.60365" lon="5.94261">
        <ele>1753</ele>
        <time>2022-11-06T17:51:12Z</time>
      </trkpt>
      <trkpt lat="44.60347" lon="5.94291">
        <ele>1751</ele>
        <time>2022-11-06T17:51:12Z</time>
      </trkpt>
      <trkpt lat="44.60322" lon="5.94274">
        <ele>1749</ele>
        <time>2022-11-06T17:51:12Z</time>
      </trkpt>
      <trkpt lat="44.60311" lon="5.94273">
        <ele>1749</ele>
        <time>2022-11-06T17:51:12Z</time>
      </trkpt>
      <trkpt lat="44.60302" lon="5.94268">
        <ele>1748</ele>
        <time>2022-11-06T17:51:12Z</time>
      </trkpt>
      <trkpt lat="44.60278" lon="5.94237">
        <ele>1748</ele>
        <time>2022-11-06T17:51:12Z</time>
      </trkpt>
      <trkpt lat="44.6027" lon="5.94234">
        <ele>1747</ele>
        <time>2022-11-06T17:51:12Z</time>
      </trkpt>
      <trkpt lat="44.60248" lon="5.94218">
        <ele>1746</ele>
        <time>2022-11-06T17:51:12Z</time>
      </trkpt>
      <trkpt lat="44.60233" lon="5.9422">
        <ele>1745</ele>
        <time>2022-11-06T17:51:12Z</time>
      </trkpt>
      <trkpt lat="44.60191" lon="5.94202">
        <ele>1742</ele>
        <time>2022-11-06T17:51:12Z</time>
      </trkpt>
      <trkpt lat="44.60182" lon="5.94196">
        <ele>1741</ele>
        <time>2022-11-06T17:51:12Z</time>
      </trkpt>
      <trkpt lat="44.60177" lon="5.94188">
        <ele>1742</ele>
        <time>2022-11-06T17:51:12Z</time>
      </trkpt>
      <trkpt lat="44.6016" lon="5.94167">
        <ele>1739</ele>
        <time>2022-11-06T17:51:12Z</time>
      </trkpt>
      <trkpt lat="44.60148" lon="5.94146">
        <ele>1740</ele>
        <time>2022-11-06T17:51:12Z</time>
      </trkpt>
      <trkpt lat="44.6012" lon="5.94116">
        <ele>1737</ele>
        <time>2022-11-06T17:51:12Z</time>
      </trkpt>
      <trkpt lat="44.60065" lon="5.94084">
        <ele>1734</ele>
        <time>2022-11-06T17:51:12Z</time>
      </trkpt>
      <trkpt lat="44.60051" lon="5.94068">
        <ele>1733</ele>
        <time>2022-11-06T17:51:12Z</time>
      </trkpt>
      <trkpt lat="44.60038" lon="5.94046">
        <ele>1732</ele>
        <time>2022-11-06T17:51:12Z</time>
      </trkpt>
      <trkpt lat="44.6003" lon="5.94024">
        <ele>1730</ele>
        <time>2022-11-06T17:51:12Z</time>
      </trkpt>
      <trkpt lat="44.60026" lon="5.94002">
        <ele>1729</ele>
        <time>2022-11-06T17:51:12Z</time>
      </trkpt>
      <trkpt lat="44.6002" lon="5.93988">
        <ele>1729</ele>
        <time>2022-11-06T17:51:12Z</time>
      </trkpt>
      <trkpt lat="44.60017" lon="5.93973">
        <ele>1727</ele>
        <time>2022-11-06T17:51:12Z</time>
      </trkpt>
      <trkpt lat="44.6001" lon="5.93958">
        <ele>1726</ele>
        <time>2022-11-06T17:51:12Z</time>
      </trkpt>
      <trkpt lat="44.59923" lon="5.93864">
        <ele>1725</ele>
        <time>2022-11-06T17:51:12Z</time>
      </trkpt>
      <trkpt lat="44.59915" lon="5.9385">
        <ele>1724</ele>
        <time>2022-11-06T17:51:12Z</time>
      </trkpt>
      <trkpt lat="44.59912" lon="5.9384">
        <ele>1724</ele>
        <time>2022-11-06T17:51:12Z</time>
      </trkpt>
      <trkpt lat="44.59913" lon="5.93821">
        <ele>1723</ele>
        <time>2022-11-06T17:51:12Z</time>
      </trkpt>
      <trkpt lat="44.59925" lon="5.93785">
        <ele>1722</ele>
        <time>2022-11-06T17:51:12Z</time>
      </trkpt>
      <trkpt lat="44.59931" lon="5.93732">
        <ele>1721</ele>
        <time>2022-11-06T17:51:12Z</time>
      </trkpt>
      <trkpt lat="44.59926" lon="5.9371">
        <ele>1720</ele>
        <time>2022-11-06T17:51:12Z</time>
      </trkpt>
      <trkpt lat="44.5992" lon="5.93696">
        <ele>1719</ele>
        <time>2022-11-06T17:51:12Z</time>
      </trkpt>
      <trkpt lat="44.59914" lon="5.93672">
        <ele>1719</ele>
        <time>2022-11-06T17:51:12Z</time>
      </trkpt>
      <trkpt lat="44.59915" lon="5.9362">
        <ele>1717</ele>
        <time>2022-11-06T17:51:12Z</time>
      </trkpt>
      <trkpt lat="44.59917" lon="5.93605">
        <ele>1716</ele>
        <time>2022-11-06T17:51:12Z</time>
      </trkpt>
      <trkpt lat="44.59921" lon="5.93596">
        <ele>1716</ele>
        <time>2022-11-06T17:51:12Z</time>
      </trkpt>
      <trkpt lat="44.59914" lon="5.93571">
        <ele>1715</ele>
        <time>2022-11-06T17:51:12Z</time>
      </trkpt>
      <trkpt lat="44.59911" lon="5.93534">
        <ele>1713</ele>
        <time>2022-11-06T17:51:12Z</time>
      </trkpt>
      <trkpt lat="44.59889" lon="5.93441">
        <ele>1712</ele>
        <time>2022-11-06T17:51:12Z</time>
      </trkpt>
      <trkpt lat="44.59883" lon="5.93431">
        <ele>1711</ele>
        <time>2022-11-06T17:51:12Z</time>
      </trkpt>
      <trkpt lat="44.59861" lon="5.93411">
        <ele>1709</ele>
        <time>2022-11-06T17:51:12Z</time>
      </trkpt>
      <trkpt lat="44.59838" lon="5.93379">
        <ele>1708</ele>
        <time>2022-11-06T17:51:12Z</time>
      </trkpt>
      <trkpt lat="44.5983" lon="5.93345">
        <ele>1707</ele>
        <time>2022-11-06T17:51:12Z</time>
      </trkpt>
      <trkpt lat="44.59842" lon="5.9333">
        <ele>1707</ele>
        <time>2022-11-06T17:51:12Z</time>
      </trkpt>
      <trkpt lat="44.59848" lon="5.93325">
        <ele>1708</ele>
        <time>2022-11-06T17:51:12Z</time>
      </trkpt>
      <trkpt lat="44.59856" lon="5.93323">
        <ele>1709</ele>
        <time>2022-11-06T17:51:12Z</time>
      </trkpt>
      <trkpt lat="44.5986" lon="5.93309">
        <ele>1708</ele>
        <time>2022-11-06T17:51:12Z</time>
      </trkpt>
      <trkpt lat="44.59864" lon="5.93299">
        <ele>1708</ele>
        <time>2022-11-06T17:51:12Z</time>
      </trkpt>
      <trkpt lat="44.59857" lon="5.93299">
        <ele>1707</ele>
        <time>2022-11-06T17:51:12Z</time>
      </trkpt>
      <trkpt lat="44.59865" lon="5.93287">
        <ele>1706</ele>
        <time>2022-11-06T17:51:12Z</time>
      </trkpt>
      <trkpt lat="44.59869" lon="5.93278">
        <ele>1703</ele>
        <time>2022-11-06T17:51:12Z</time>
      </trkpt>
      <trkpt lat="44.59873" lon="5.93258">
        <ele>1701</ele>
        <time>2022-11-06T17:51:12Z</time>
      </trkpt>
      <trkpt lat="44.59871" lon="5.93245">
        <ele>1698</ele>
        <time>2022-11-06T17:51:12Z</time>
      </trkpt>
      <trkpt lat="44.5987" lon="5.93233">
        <ele>1692</ele>
        <time>2022-11-06T17:51:12Z</time>
      </trkpt>
      <trkpt lat="44.59859" lon="5.93249">
        <ele>1691</ele>
        <time>2022-11-06T17:51:12Z</time>
      </trkpt>
      <trkpt lat="44.5985" lon="5.93257">
        <ele>1688</ele>
        <time>2022-11-06T17:51:12Z</time>
      </trkpt>
      <trkpt lat="44.59845" lon="5.93265">
        <ele>1686</ele>
        <time>2022-11-06T17:51:12Z</time>
      </trkpt>
      <trkpt lat="44.59835" lon="5.93276">
        <ele>1683</ele>
        <time>2022-11-06T17:51:12Z</time>
      </trkpt>
      <trkpt lat="44.59815" lon="5.93276">
        <ele>1677</ele>
        <time>2022-11-06T17:51:12Z</time>
      </trkpt>
      <trkpt lat="44.59803" lon="5.93269">
        <ele>1674</ele>
        <time>2022-11-06T17:51:12Z</time>
      </trkpt>
      <trkpt lat="44.59793" lon="5.9327">
        <ele>1672</ele>
        <time>2022-11-06T17:51:12Z</time>
      </trkpt>
      <trkpt lat="44.59735" lon="5.93258">
        <ele>1663</ele>
        <time>2022-11-06T17:51:12Z</time>
      </trkpt>
      <trkpt lat="44.59727" lon="5.9326">
        <ele>1662</ele>
        <time>2022-11-06T17:51:12Z</time>
      </trkpt>
      <trkpt lat="44.59716" lon="5.93266">
        <ele>1660</ele>
        <time>2022-11-06T17:51:12Z</time>
      </trkpt>
      <trkpt lat="44.59704" lon="5.93276">
        <ele>1657</ele>
        <time>2022-11-06T17:51:12Z</time>
      </trkpt>
      <trkpt lat="44.59699" lon="5.93285">
        <ele>1655</ele>
        <time>2022-11-06T17:51:12Z</time>
      </trkpt>
      <trkpt lat="44.59688" lon="5.93284">
        <ele>1654</ele>
        <time>2022-11-06T17:51:12Z</time>
      </trkpt>
      <trkpt lat="44.59677" lon="5.9329">
        <ele>1651</ele>
        <time>2022-11-06T17:51:12Z</time>
      </trkpt>
      <trkpt lat="44.59671" lon="5.93297">
        <ele>1650</ele>
        <time>2022-11-06T17:51:12Z</time>
      </trkpt>
      <trkpt lat="44.59662" lon="5.93297">
        <ele>1650</ele>
        <time>2022-11-06T17:51:12Z</time>
      </trkpt>
      <trkpt lat="44.59655" lon="5.93304">
        <ele>1649</ele>
        <time>2022-11-06T17:51:12Z</time>
      </trkpt>
      <trkpt lat="44.59655" lon="5.9328">
        <ele>1645</ele>
        <time>2022-11-06T17:51:12Z</time>
      </trkpt>
      <trkpt lat="44.59653" lon="5.93268">
        <ele>1644</ele>
        <time>2022-11-06T17:51:12Z</time>
      </trkpt>
      <trkpt lat="44.59646" lon="5.93237">
        <ele>1637</ele>
        <time>2022-11-06T17:51:12Z</time>
      </trkpt>
      <trkpt lat="44.59653" lon="5.93228">
        <ele>1636</ele>
        <time>2022-11-06T17:51:12Z</time>
      </trkpt>
      <trkpt lat="44.59659" lon="5.93215">
        <ele>1634</ele>
        <time>2022-11-06T17:51:12Z</time>
      </trkpt>
      <trkpt lat="44.59664" lon="5.93207">
        <ele>1632</ele>
        <time>2022-11-06T17:51:12Z</time>
      </trkpt>
      <trkpt lat="44.59664" lon="5.93196">
        <ele>1631</ele>
        <time>2022-11-06T17:51:12Z</time>
      </trkpt>
      <trkpt lat="44.59666" lon="5.93185">
        <ele>1630</ele>
        <time>2022-11-06T17:51:12Z</time>
      </trkpt>
      <trkpt lat="44.59664" lon="5.93175">
        <ele>1625</ele>
        <time>2022-11-06T17:51:12Z</time>
      </trkpt>
      <trkpt lat="44.5966" lon="5.93166">
        <ele>1620</ele>
        <time>2022-11-06T17:51:12Z</time>
      </trkpt>
      <trkpt lat="44.5966" lon="5.93156">
        <ele>1615</ele>
        <time>2022-11-06T17:51:12Z</time>
      </trkpt>
      <trkpt lat="44.59656" lon="5.93147">
        <ele>1611</ele>
        <time>2022-11-06T17:51:12Z</time>
      </trkpt>
      <trkpt lat="44.59654" lon="5.93136">
        <ele>1607</ele>
        <time>2022-11-06T17:51:12Z</time>
      </trkpt>
      <trkpt lat="44.59642" lon="5.93127">
        <ele>1604</ele>
        <time>2022-11-06T17:51:12Z</time>
      </trkpt>
      <trkpt lat="44.59635" lon="5.93127">
        <ele>1604</ele>
        <time>2022-11-06T17:51:12Z</time>
      </trkpt>
      <trkpt lat="44.59632" lon="5.93137">
        <ele>1602</ele>
        <time>2022-11-06T17:51:12Z</time>
      </trkpt>
      <trkpt lat="44.59622" lon="5.93131">
        <ele>1602</ele>
        <time>2022-11-06T17:51:12Z</time>
      </trkpt>
      <trkpt lat="44.59611" lon="5.93129">
        <ele>1601</ele>
        <time>2022-11-06T17:51:12Z</time>
      </trkpt>
      <trkpt lat="44.59604" lon="5.93125">
        <ele>1601</ele>
        <time>2022-11-06T17:51:12Z</time>
      </trkpt>
      <trkpt lat="44.59593" lon="5.93122">
        <ele>1602</ele>
        <time>2022-11-06T17:51:12Z</time>
      </trkpt>
      <trkpt lat="44.59584" lon="5.93125">
        <ele>1604</ele>
        <time>2022-11-06T17:51:12Z</time>
      </trkpt>
      <trkpt lat="44.59542" lon="5.93155">
        <ele>1610</ele>
        <time>2022-11-06T17:51:12Z</time>
      </trkpt>
      <trkpt lat="44.59527" lon="5.93158">
        <ele>1610</ele>
        <time>2022-11-06T17:51:12Z</time>
      </trkpt>
      <trkpt lat="44.59518" lon="5.93157">
        <ele>1608</ele>
        <time>2022-11-06T17:51:12Z</time>
      </trkpt>
      <trkpt lat="44.59509" lon="5.93161">
        <ele>1607</ele>
        <time>2022-11-06T17:51:12Z</time>
      </trkpt>
      <trkpt lat="44.59502" lon="5.93167">
        <ele>1605</ele>
        <time>2022-11-06T17:51:12Z</time>
      </trkpt>
      <trkpt lat="44.59497" lon="5.93174">
        <ele>1603</ele>
        <time>2022-11-06T17:51:12Z</time>
      </trkpt>
      <trkpt lat="44.59487" lon="5.93197">
        <ele>1601</ele>
        <time>2022-11-06T17:51:12Z</time>
      </trkpt>
      <trkpt lat="44.59479" lon="5.93194">
        <ele>1599</ele>
        <time>2022-11-06T17:51:12Z</time>
      </trkpt>
      <trkpt lat="44.59386" lon="5.93188">
        <ele>1562</ele>
        <time>2022-11-06T17:51:13Z</time>
      </trkpt>
      <trkpt lat="44.59378" lon="5.93181">
        <ele>1560</ele>
        <time>2022-11-06T17:51:13Z</time>
      </trkpt>
      <trkpt lat="44.5938" lon="5.93156">
        <ele>1557</ele>
        <time>2022-11-06T17:51:13Z</time>
      </trkpt>
      <trkpt lat="44.59383" lon="5.93141">
        <ele>1555</ele>
        <time>2022-11-06T17:51:13Z</time>
      </trkpt>
      <trkpt lat="44.59388" lon="5.93125">
        <ele>1553</ele>
        <time>2022-11-06T17:51:13Z</time>
      </trkpt>
      <trkpt lat="44.59404" lon="5.93092">
        <ele>1544</ele>
        <time>2022-11-06T17:51:13Z</time>
      </trkpt>
      <trkpt lat="44.59382" lon="5.93096">
        <ele>1538</ele>
        <time>2022-11-06T17:51:13Z</time>
      </trkpt>
      <trkpt lat="44.59369" lon="5.931">
        <ele>1535</ele>
        <time>2022-11-06T17:51:13Z</time>
      </trkpt>
      <trkpt lat="44.59358" lon="5.931">
        <ele>1533</ele>
        <time>2022-11-06T17:51:13Z</time>
      </trkpt>
      <trkpt lat="44.59348" lon="5.93103">
        <ele>1530</ele>
        <time>2022-11-06T17:51:13Z</time>
      </trkpt>
      <trkpt lat="44.59334" lon="5.93108">
        <ele>1527</ele>
        <time>2022-11-06T17:51:13Z</time>
      </trkpt>
      <trkpt lat="44.59324" lon="5.93113">
        <ele>1522</ele>
        <time>2022-11-06T17:51:13Z</time>
      </trkpt>
      <trkpt lat="44.59303" lon="5.93125">
        <ele>1519</ele>
        <time>2022-11-06T17:51:13Z</time>
      </trkpt>
      <trkpt lat="44.59294" lon="5.93131">
        <ele>1516</ele>
        <time>2022-11-06T17:51:13Z</time>
      </trkpt>
      <trkpt lat="44.59285" lon="5.93132">
        <ele>1513</ele>
        <time>2022-11-06T17:51:13Z</time>
      </trkpt>
      <trkpt lat="44.59278" lon="5.93139">
        <ele>1510</ele>
        <time>2022-11-06T17:51:13Z</time>
      </trkpt>
      <trkpt lat="44.59276" lon="5.93152">
        <ele>1509</ele>
        <time>2022-11-06T17:51:13Z</time>
      </trkpt>
      <trkpt lat="44.59278" lon="5.93163">
        <ele>1509</ele>
        <time>2022-11-06T17:51:13Z</time>
      </trkpt>
      <trkpt lat="44.59273" lon="5.93189">
        <ele>1506</ele>
        <time>2022-11-06T17:51:13Z</time>
      </trkpt>
      <trkpt lat="44.59272" lon="5.93208">
        <ele>1502</ele>
        <time>2022-11-06T17:51:13Z</time>
      </trkpt>
      <trkpt lat="44.59273" lon="5.9322">
        <ele>1499</ele>
        <time>2022-11-06T17:51:13Z</time>
      </trkpt>
      <trkpt lat="44.59275" lon="5.93231">
        <ele>1497</ele>
        <time>2022-11-06T17:51:13Z</time>
      </trkpt>
      <trkpt lat="44.5928" lon="5.93239">
        <ele>1495</ele>
        <time>2022-11-06T17:51:13Z</time>
      </trkpt>
      <trkpt lat="44.59287" lon="5.93259">
        <ele>1492</ele>
        <time>2022-11-06T17:51:13Z</time>
      </trkpt>
      <trkpt lat="44.59297" lon="5.93264">
        <ele>1489</ele>
        <time>2022-11-06T17:51:13Z</time>
      </trkpt>
      <trkpt lat="44.59308" lon="5.93267">
        <ele>1485</ele>
        <time>2022-11-06T17:51:13Z</time>
      </trkpt>
      <trkpt lat="44.59324" lon="5.93273">
        <ele>1481</ele>
        <time>2022-11-06T17:51:13Z</time>
      </trkpt>
      <trkpt lat="44.59329" lon="5.93286">
        <ele>1478</ele>
        <time>2022-11-06T17:51:13Z</time>
      </trkpt>
      <trkpt lat="44.59341" lon="5.93303">
        <ele>1474</ele>
        <time>2022-11-06T17:51:13Z</time>
      </trkpt>
      <trkpt lat="44.59344" lon="5.93325">
        <ele>1472</ele>
        <time>2022-11-06T17:51:13Z</time>
      </trkpt>
      <trkpt lat="44.5935" lon="5.93333">
        <ele>1472</ele>
        <time>2022-11-06T17:51:13Z</time>
      </trkpt>
      <trkpt lat="44.59353" lon="5.93343">
        <ele>1470</ele>
        <time>2022-11-06T17:51:13Z</time>
      </trkpt>
      <trkpt lat="44.59353" lon="5.93357">
        <ele>1468</ele>
        <time>2022-11-06T17:51:13Z</time>
      </trkpt>
      <trkpt lat="44.59357" lon="5.93367">
        <ele>1466</ele>
        <time>2022-11-06T17:51:13Z</time>
      </trkpt>
      <trkpt lat="44.59362" lon="5.93378">
        <ele>1463</ele>
        <time>2022-11-06T17:51:13Z</time>
      </trkpt>
      <trkpt lat="44.5936" lon="5.934">
        <ele>1462</ele>
        <time>2022-11-06T17:51:13Z</time>
      </trkpt>
      <trkpt lat="44.59342" lon="5.934">
        <ele>1453</ele>
        <time>2022-11-06T17:51:13Z</time>
      </trkpt>
      <trkpt lat="44.59336" lon="5.93394">
        <ele>1451</ele>
        <time>2022-11-06T17:51:13Z</time>
      </trkpt>
      <trkpt lat="44.59328" lon="5.93393">
        <ele>1450</ele>
        <time>2022-11-06T17:51:13Z</time>
      </trkpt>
      <trkpt lat="44.59321" lon="5.93396">
        <ele>1449</ele>
        <time>2022-11-06T17:51:13Z</time>
      </trkpt>
      <trkpt lat="44.59312" lon="5.93402">
        <ele>1447</ele>
        <time>2022-11-06T17:51:13Z</time>
      </trkpt>
      <trkpt lat="44.59307" lon="5.93409">
        <ele>1445</ele>
        <time>2022-11-06T17:51:13Z</time>
      </trkpt>
      <trkpt lat="44.59289" lon="5.93406">
        <ele>1441</ele>
        <time>2022-11-06T17:51:13Z</time>
      </trkpt>
      <trkpt lat="44.5928" lon="5.93401">
        <ele>1439</ele>
        <time>2022-11-06T17:51:13Z</time>
      </trkpt>
      <trkpt lat="44.59267" lon="5.93381">
        <ele>1435</ele>
        <time>2022-11-06T17:51:13Z</time>
      </trkpt>
      <trkpt lat="44.59261" lon="5.93375">
        <ele>1431</ele>
        <time>2022-11-06T17:51:13Z</time>
      </trkpt>
      <trkpt lat="44.59251" lon="5.9337">
        <ele>1430</ele>
        <time>2022-11-06T17:51:13Z</time>
      </trkpt>
      <trkpt lat="44.59244" lon="5.93362">
        <ele>1428</ele>
        <time>2022-11-06T17:51:13Z</time>
      </trkpt>
      <trkpt lat="44.59234" lon="5.93359">
        <ele>1426</ele>
        <time>2022-11-06T17:51:13Z</time>
      </trkpt>
      <trkpt lat="44.59224" lon="5.93361">
        <ele>1423</ele>
        <time>2022-11-06T17:51:13Z</time>
      </trkpt>
      <trkpt lat="44.59206" lon="5.93357">
        <ele>1421</ele>
        <time>2022-11-06T17:51:13Z</time>
      </trkpt>
      <trkpt lat="44.59201" lon="5.93345">
        <ele>1420</ele>
        <time>2022-11-06T17:51:13Z</time>
      </trkpt>
      <trkpt lat="44.59189" lon="5.93319">
        <ele>1416</ele>
        <time>2022-11-06T17:51:13Z</time>
      </trkpt>
      <trkpt lat="44.59175" lon="5.93284">
        <ele>1412</ele>
        <time>2022-11-06T17:51:13Z</time>
      </trkpt>
      <trkpt lat="44.59168" lon="5.93274">
        <ele>1412</ele>
        <time>2022-11-06T17:51:13Z</time>
      </trkpt>
      <trkpt lat="44.59161" lon="5.93269">
        <ele>1411</ele>
        <time>2022-11-06T17:51:13Z</time>
      </trkpt>
      <trkpt lat="44.59156" lon="5.93261">
        <ele>1410</ele>
        <time>2022-11-06T17:51:13Z</time>
      </trkpt>
      <trkpt lat="44.5916" lon="5.93252">
        <ele>1408</ele>
        <time>2022-11-06T17:51:13Z</time>
      </trkpt>
      <trkpt lat="44.59138" lon="5.93196">
        <ele>1399</ele>
        <time>2022-11-06T17:51:13Z</time>
      </trkpt>
      <trkpt lat="44.5913" lon="5.9319">
        <ele>1397</ele>
        <time>2022-11-06T17:51:13Z</time>
      </trkpt>
      <trkpt lat="44.59113" lon="5.93183">
        <ele>1390</ele>
        <time>2022-11-06T17:51:13Z</time>
      </trkpt>
      <trkpt lat="44.59103" lon="5.93178">
        <ele>1388</ele>
        <time>2022-11-06T17:51:13Z</time>
      </trkpt>
      <trkpt lat="44.59095" lon="5.93174">
        <ele>1386</ele>
        <time>2022-11-06T17:51:13Z</time>
      </trkpt>
      <trkpt lat="44.59081" lon="5.93164">
        <ele>1383</ele>
        <time>2022-11-06T17:51:13Z</time>
      </trkpt>
      <trkpt lat="44.59069" lon="5.93167">
        <ele>1379</ele>
        <time>2022-11-06T17:51:13Z</time>
      </trkpt>
      <trkpt lat="44.59058" lon="5.93166">
        <ele>1376</ele>
        <time>2022-11-06T17:51:13Z</time>
      </trkpt>
      <trkpt lat="44.59048" lon="5.93166">
        <ele>1374</ele>
        <time>2022-11-06T17:51:13Z</time>
      </trkpt>
      <trkpt lat="44.59037" lon="5.93166">
        <ele>1371</ele>
        <time>2022-11-06T17:51:13Z</time>
      </trkpt>
      <trkpt lat="44.59019" lon="5.93152">
        <ele>1368</ele>
        <time>2022-11-06T17:51:13Z</time>
      </trkpt>
      <trkpt lat="44.58985" lon="5.93122">
        <ele>1362</ele>
        <time>2022-11-06T17:51:13Z</time>
      </trkpt>
      <trkpt lat="44.5896" lon="5.93088">
        <ele>1358</ele>
        <time>2022-11-06T17:51:13Z</time>
      </trkpt>
      <trkpt lat="44.58951" lon="5.93066">
        <ele>1357</ele>
        <time>2022-11-06T17:51:13Z</time>
      </trkpt>
      <trkpt lat="44.58956" lon="5.93074">
        <ele>1356</ele>
        <time>2022-11-06T17:51:13Z</time>
      </trkpt>
      <trkpt lat="44.58957" lon="5.93084">
        <ele>1354</ele>
        <time>2022-11-06T17:51:13Z</time>
      </trkpt>
      <trkpt lat="44.58959" lon="5.93099">
        <ele>1351</ele>
        <time>2022-11-06T17:51:13Z</time>
      </trkpt>
      <trkpt lat="44.58959" lon="5.93114">
        <ele>1349</ele>
        <time>2022-11-06T17:51:13Z</time>
      </trkpt>
      <trkpt lat="44.58959" lon="5.93137">
        <ele>1346</ele>
        <time>2022-11-06T17:51:13Z</time>
      </trkpt>
      <trkpt lat="44.58962" lon="5.93153">
        <ele>1342</ele>
        <time>2022-11-06T17:51:13Z</time>
      </trkpt>
      <trkpt lat="44.58963" lon="5.93169">
        <ele>1339</ele>
        <time>2022-11-06T17:51:13Z</time>
      </trkpt>
      <trkpt lat="44.5897" lon="5.93181">
        <ele>1334</ele>
        <time>2022-11-06T17:51:13Z</time>
      </trkpt>
      <trkpt lat="44.58975" lon="5.93192">
        <ele>1331</ele>
        <time>2022-11-06T17:51:13Z</time>
      </trkpt>
      <trkpt lat="44.59007" lon="5.93212">
        <ele>1326</ele>
        <time>2022-11-06T17:51:13Z</time>
      </trkpt>
      <trkpt lat="44.59014" lon="5.93221">
        <ele>1325</ele>
        <time>2022-11-06T17:51:13Z</time>
      </trkpt>
      <trkpt lat="44.59017" lon="5.93238">
        <ele>1324</ele>
        <time>2022-11-06T17:51:13Z</time>
      </trkpt>
      <trkpt lat="44.59022" lon="5.93248">
        <ele>1324</ele>
        <time>2022-11-06T17:51:13Z</time>
      </trkpt>
      <trkpt lat="44.59027" lon="5.93242">
        <ele>1322</ele>
        <time>2022-11-06T17:51:13Z</time>
      </trkpt>
      <trkpt lat="44.59028" lon="5.93259">
        <ele>1322</ele>
        <time>2022-11-06T17:51:13Z</time>
      </trkpt>
      <trkpt lat="44.59022" lon="5.93268">
        <ele>1320</ele>
        <time>2022-11-06T17:51:13Z</time>
      </trkpt>
      <trkpt lat="44.59015" lon="5.93278">
        <ele>1315</ele>
        <time>2022-11-06T17:51:13Z</time>
      </trkpt>
      <trkpt lat="44.59014" lon="5.93292">
        <ele>1313</ele>
        <time>2022-11-06T17:51:13Z</time>
      </trkpt>
      <trkpt lat="44.59018" lon="5.93313">
        <ele>1309</ele>
        <time>2022-11-06T17:51:13Z</time>
      </trkpt>
      <trkpt lat="44.59025" lon="5.93326">
        <ele>1304</ele>
        <time>2022-11-06T17:51:13Z</time>
      </trkpt>
      <trkpt lat="44.59025" lon="5.93378">
        <ele>1301</ele>
        <time>2022-11-06T17:51:13Z</time>
      </trkpt>
      <trkpt lat="44.59016" lon="5.93384">
        <ele>1301</ele>
        <time>2022-11-06T17:51:13Z</time>
      </trkpt>
      <trkpt lat="44.59012" lon="5.93392">
        <ele>1300</ele>
        <time>2022-11-06T17:51:13Z</time>
      </trkpt>
      <trkpt lat="44.59018" lon="5.93399">
        <ele>1292</ele>
        <time>2022-11-06T17:51:13Z</time>
      </trkpt>
      <trkpt lat="44.59022" lon="5.93415">
        <ele>1289</ele>
        <time>2022-11-06T17:51:13Z</time>
      </trkpt>
      <trkpt lat="44.59018" lon="5.93439">
        <ele>1287</ele>
        <time>2022-11-06T17:51:13Z</time>
      </trkpt>
      <trkpt lat="44.59011" lon="5.93455">
        <ele>1285</ele>
        <time>2022-11-06T17:51:13Z</time>
      </trkpt>
      <trkpt lat="44.5898" lon="5.93451">
        <ele>1275</ele>
        <time>2022-11-06T17:51:13Z</time>
      </trkpt>
      <trkpt lat="44.58973" lon="5.93444">
        <ele>1273</ele>
        <time>2022-11-06T17:51:13Z</time>
      </trkpt>
      <trkpt lat="44.58966" lon="5.93437">
        <ele>1270</ele>
        <time>2022-11-06T17:51:13Z</time>
      </trkpt>
      <trkpt lat="44.58955" lon="5.93432">
        <ele>1269</ele>
        <time>2022-11-06T17:51:13Z</time>
      </trkpt>
      <trkpt lat="44.58954" lon="5.93449">
        <ele>1268</ele>
        <time>2022-11-06T17:51:13Z</time>
      </trkpt>
      <trkpt lat="44.58955" lon="5.9346">
        <ele>1266</ele>
        <time>2022-11-06T17:51:13Z</time>
      </trkpt>
      <trkpt lat="44.58954" lon="5.93484">
        <ele>1262</ele>
        <time>2022-11-06T17:51:13Z</time>
      </trkpt>
      <trkpt lat="44.58957" lon="5.93507">
        <ele>1259</ele>
        <time>2022-11-06T17:51:13Z</time>
      </trkpt>
      <trkpt lat="44.58953" lon="5.93519">
        <ele>1258</ele>
        <time>2022-11-06T17:51:13Z</time>
      </trkpt>
      <trkpt lat="44.58948" lon="5.93527">
        <ele>1258</ele>
        <time>2022-11-06T17:51:13Z</time>
      </trkpt>
      <trkpt lat="44.58939" lon="5.9353">
        <ele>1257</ele>
        <time>2022-11-06T17:51:13Z</time>
      </trkpt>
      <trkpt lat="44.58929" lon="5.93527">
        <ele>1256</ele>
        <time>2022-11-06T17:51:13Z</time>
      </trkpt>
      <trkpt lat="44.58921" lon="5.9352">
        <ele>1257</ele>
        <time>2022-11-06T17:51:13Z</time>
      </trkpt>
      <trkpt lat="44.58919" lon="5.93509">
        <ele>1256</ele>
        <time>2022-11-06T17:51:13Z</time>
      </trkpt>
      <trkpt lat="44.58924" lon="5.93499">
        <ele>1256</ele>
        <time>2022-11-06T17:51:13Z</time>
      </trkpt>
      <trkpt lat="44.58914" lon="5.93495">
        <ele>1256</ele>
        <time>2022-11-06T17:51:13Z</time>
      </trkpt>
      <trkpt lat="44.58901" lon="5.93477">
        <ele>1254</ele>
        <time>2022-11-06T17:51:13Z</time>
      </trkpt>
      <trkpt lat="44.58868" lon="5.93445">
        <ele>1252</ele>
        <time>2022-11-06T17:51:13Z</time>
      </trkpt>
      <trkpt lat="44.58841" lon="5.93403">
        <ele>1250</ele>
        <time>2022-11-06T17:51:13Z</time>
      </trkpt>
      <trkpt lat="44.58839" lon="5.93391">
        <ele>1250</ele>
        <time>2022-11-06T17:51:13Z</time>
      </trkpt>
      <trkpt lat="44.58837" lon="5.93368">
        <ele>1249</ele>
        <time>2022-11-06T17:51:13Z</time>
      </trkpt>
      <trkpt lat="44.58817" lon="5.93335">
        <ele>1247</ele>
        <time>2022-11-06T17:51:13Z</time>
      </trkpt>
      <trkpt lat="44.58811" lon="5.93326">
        <ele>1244</ele>
        <time>2022-11-06T17:51:13Z</time>
      </trkpt>
      <trkpt lat="44.58808" lon="5.93315">
        <ele>1243</ele>
        <time>2022-11-06T17:51:13Z</time>
      </trkpt>
      <trkpt lat="44.58804" lon="5.93306">
        <ele>1240</ele>
        <time>2022-11-06T17:51:13Z</time>
      </trkpt>
      <trkpt lat="44.58796" lon="5.93288">
        <ele>1238</ele>
        <time>2022-11-06T17:51:13Z</time>
      </trkpt>
      <trkpt lat="44.58754" lon="5.9324">
        <ele>1232</ele>
        <time>2022-11-06T17:51:13Z</time>
      </trkpt>
      <trkpt lat="44.58732" lon="5.93228">
        <ele>1230</ele>
        <time>2022-11-06T17:51:13Z</time>
      </trkpt>
      <trkpt lat="44.58718" lon="5.93219">
        <ele>1228</ele>
        <time>2022-11-06T17:51:13Z</time>
      </trkpt>
      <trkpt lat="44.58713" lon="5.93211">
        <ele>1227</ele>
        <time>2022-11-06T17:51:13Z</time>
      </trkpt>
      <trkpt lat="44.58707" lon="5.93179">
        <ele>1224</ele>
        <time>2022-11-06T17:51:13Z</time>
      </trkpt>
      <trkpt lat="44.58709" lon="5.93157">
        <ele>1223</ele>
        <time>2022-11-06T17:51:13Z</time>
      </trkpt>
      <trkpt lat="44.58713" lon="5.93142">
        <ele>1221</ele>
        <time>2022-11-06T17:51:13Z</time>
      </trkpt>
      <trkpt lat="44.58723" lon="5.93133">
        <ele>1220</ele>
        <time>2022-11-06T17:51:13Z</time>
      </trkpt>
      <trkpt lat="44.58746" lon="5.93129">
        <ele>1217</ele>
        <time>2022-11-06T17:51:13Z</time>
      </trkpt>
      <trkpt lat="44.58779" lon="5.93137">
        <ele>1215</ele>
        <time>2022-11-06T17:51:13Z</time>
      </trkpt>
      <trkpt lat="44.58786" lon="5.93136">
        <ele>1214</ele>
        <time>2022-11-06T17:51:13Z</time>
      </trkpt>
      <trkpt lat="44.58801" lon="5.93123">
        <ele>1214</ele>
        <time>2022-11-06T17:51:13Z</time>
      </trkpt>
      <trkpt lat="44.588" lon="5.93104">
        <ele>1214</ele>
        <time>2022-11-06T17:51:13Z</time>
      </trkpt>
      <trkpt lat="44.58793" lon="5.93094">
        <ele>1214</ele>
        <time>2022-11-06T17:51:13Z</time>
      </trkpt>
      <trkpt lat="44.58735" lon="5.93044">
        <ele>1207</ele>
        <time>2022-11-06T17:51:13Z</time>
      </trkpt>
      <trkpt lat="44.58728" lon="5.93028">
        <ele>1206</ele>
        <time>2022-11-06T17:51:13Z</time>
      </trkpt>
      <trkpt lat="44.58724" lon="5.93008">
        <ele>1206</ele>
        <time>2022-11-06T17:51:13Z</time>
      </trkpt>
      <trkpt lat="44.58725" lon="5.92988">
        <ele>1204</ele>
        <time>2022-11-06T17:51:13Z</time>
      </trkpt>
      <trkpt lat="44.5873" lon="5.92968">
        <ele>1203</ele>
        <time>2022-11-06T17:51:13Z</time>
      </trkpt>
      <trkpt lat="44.58728" lon="5.92953">
        <ele>1202</ele>
        <time>2022-11-06T17:51:13Z</time>
      </trkpt>
      <trkpt lat="44.58664" lon="5.92885">
        <ele>1206</ele>
        <time>2022-11-06T17:51:13Z</time>
      </trkpt>
      <trkpt lat="44.58664" lon="5.92873">
        <ele>1206</ele>
        <time>2022-11-06T17:51:13Z</time>
      </trkpt>
      <trkpt lat="44.5864" lon="5.92835">
        <ele>1208</ele>
        <time>2022-11-06T17:51:13Z</time>
      </trkpt>
      <trkpt lat="44.58621" lon="5.92824">
        <ele>1209</ele>
        <time>2022-11-06T17:51:13Z</time>
      </trkpt>
      <trkpt lat="44.58612" lon="5.92823">
        <ele>1209</ele>
        <time>2022-11-06T17:51:13Z</time>
      </trkpt>
      <trkpt lat="44.58558" lon="5.9284">
        <ele>1210</ele>
        <time>2022-11-06T17:51:13Z</time>
      </trkpt>
      <trkpt lat="44.58482" lon="5.92836">
        <ele>1214</ele>
        <time>2022-11-06T17:51:14Z</time>
      </trkpt>
      <trkpt lat="44.58473" lon="5.9284">
        <ele>1214</ele>
        <time>2022-11-06T17:51:14Z</time>
      </trkpt>
      <trkpt lat="44.58422" lon="5.9284">
        <ele>1215</ele>
        <time>2022-11-06T17:51:14Z</time>
      </trkpt>
      <trkpt lat="44.58407" lon="5.92833">
        <ele>1216</ele>
        <time>2022-11-06T17:51:14Z</time>
      </trkpt>
      <trkpt lat="44.58387" lon="5.92811">
        <ele>1219</ele>
        <time>2022-11-06T17:51:14Z</time>
      </trkpt>
      <trkpt lat="44.58355" lon="5.92772">
        <ele>1221</ele>
        <time>2022-11-06T17:51:14Z</time>
      </trkpt>
      <trkpt lat="44.58325" lon="5.92755">
        <ele>1220</ele>
        <time>2022-11-06T17:51:14Z</time>
      </trkpt>
      <trkpt lat="44.58302" lon="5.92767">
        <ele>1223</ele>
        <time>2022-11-06T17:51:14Z</time>
      </trkpt>
      <trkpt lat="44.58292" lon="5.9277">
        <ele>1223</ele>
        <time>2022-11-06T17:51:14Z</time>
      </trkpt>
      <trkpt lat="44.58254" lon="5.92765">
        <ele>1227</ele>
        <time>2022-11-06T17:51:14Z</time>
      </trkpt>
      <trkpt lat="44.58239" lon="5.92757">
        <ele>1227</ele>
        <time>2022-11-06T17:51:14Z</time>
      </trkpt>
      <trkpt lat="44.58227" lon="5.92739">
        <ele>1229</ele>
        <time>2022-11-06T17:51:14Z</time>
      </trkpt>
      <trkpt lat="44.58219" lon="5.92725">
        <ele>1229</ele>
        <time>2022-11-06T17:51:14Z</time>
      </trkpt>
      <trkpt lat="44.58207" lon="5.92684">
        <ele>1231</ele>
        <time>2022-11-06T17:51:14Z</time>
      </trkpt>
      <trkpt lat="44.58202" lon="5.92674">
        <ele>1231</ele>
        <time>2022-11-06T17:51:14Z</time>
      </trkpt>
      <trkpt lat="44.58187" lon="5.92658">
        <ele>1233</ele>
        <time>2022-11-06T17:51:14Z</time>
      </trkpt>
      <trkpt lat="44.58076" lon="5.92584">
        <ele>1239</ele>
        <time>2022-11-06T17:51:14Z</time>
      </trkpt>
      <trkpt lat="44.58043" lon="5.92573">
        <ele>1239</ele>
        <time>2022-11-06T17:51:14Z</time>
      </trkpt>
      <trkpt lat="44.58036" lon="5.92568">
        <ele>1240</ele>
        <time>2022-11-06T17:51:14Z</time>
      </trkpt>
      <trkpt lat="44.58022" lon="5.92553">
        <ele>1241</ele>
        <time>2022-11-06T17:51:14Z</time>
      </trkpt>
      <trkpt lat="44.57981" lon="5.92557">
        <ele>1245</ele>
        <time>2022-11-06T17:51:14Z</time>
      </trkpt>
      <trkpt lat="44.57946" lon="5.92579">
        <ele>1249</ele>
        <time>2022-11-06T17:51:14Z</time>
      </trkpt>
      <trkpt lat="44.57937" lon="5.9258">
        <ele>1250</ele>
        <time>2022-11-06T17:51:14Z</time>
      </trkpt>
      <trkpt lat="44.57918" lon="5.92589">
        <ele>1252</ele>
        <time>2022-11-06T17:51:14Z</time>
      </trkpt>
      <trkpt lat="44.57898" lon="5.92586">
        <ele>1254</ele>
        <time>2022-11-06T17:51:14Z</time>
      </trkpt>
      <trkpt lat="44.5788" lon="5.92582">
        <ele>1256</ele>
        <time>2022-11-06T17:51:14Z</time>
      </trkpt>
      <trkpt lat="44.57873" lon="5.92584">
        <ele>1257</ele>
        <time>2022-11-06T17:51:14Z</time>
      </trkpt>
      <trkpt lat="44.57835" lon="5.9257">
        <ele>1261</ele>
        <time>2022-11-06T17:51:14Z</time>
      </trkpt>
      <trkpt lat="44.5781" lon="5.92568">
        <ele>1263</ele>
        <time>2022-11-06T17:51:14Z</time>
      </trkpt>
      <trkpt lat="44.57711" lon="5.92527">
        <ele>1271</ele>
        <time>2022-11-06T17:51:14Z</time>
      </trkpt>
      <trkpt lat="44.57698" lon="5.92515">
        <ele>1271</ele>
        <time>2022-11-06T17:51:14Z</time>
      </trkpt>
      <trkpt lat="44.57655" lon="5.92509">
        <ele>1273</ele>
        <time>2022-11-06T17:51:14Z</time>
      </trkpt>
      <trkpt lat="44.57605" lon="5.92481">
        <ele>1275</ele>
        <time>2022-11-06T17:51:14Z</time>
      </trkpt>
      <trkpt lat="44.57499" lon="5.92487">
        <ele>1279</ele>
        <time>2022-11-06T17:51:14Z</time>
      </trkpt>
      <trkpt lat="44.57464" lon="5.92483">
        <ele>1282</ele>
        <time>2022-11-06T17:51:14Z</time>
      </trkpt>
      <trkpt lat="44.5745" lon="5.92472">
        <ele>1283</ele>
        <time>2022-11-06T17:51:14Z</time>
      </trkpt>
      <trkpt lat="44.57426" lon="5.92462">
        <ele>1283</ele>
        <time>2022-11-06T17:51:14Z</time>
      </trkpt>
      <trkpt lat="44.5736" lon="5.92464">
        <ele>1280</ele>
        <time>2022-11-06T17:51:14Z</time>
      </trkpt>
      <trkpt lat="44.57316" lon="5.92458">
        <ele>1280</ele>
        <time>2022-11-06T17:51:14Z</time>
      </trkpt>
      <trkpt lat="44.57306" lon="5.92462">
        <ele>1279</ele>
        <time>2022-11-06T17:51:14Z</time>
      </trkpt>
      <trkpt lat="44.57298" lon="5.92472">
        <ele>1277</ele>
        <time>2022-11-06T17:51:14Z</time>
      </trkpt>
      <trkpt lat="44.57297" lon="5.92459">
        <ele>1275</ele>
        <time>2022-11-06T17:51:14Z</time>
      </trkpt>
      <trkpt lat="44.57305" lon="5.92456">
        <ele>1276</ele>
        <time>2022-11-06T17:51:14Z</time>
      </trkpt>
      <trkpt lat="44.57316" lon="5.92439">
        <ele>1280</ele>
        <time>2022-11-06T17:51:14Z</time>
      </trkpt>
      <trkpt lat="44.57321" lon="5.92432">
        <ele>1282</ele>
        <time>2022-11-06T17:51:14Z</time>
      </trkpt>
      <trkpt lat="44.57326" lon="5.92423">
        <ele>1285</ele>
        <time>2022-11-06T17:51:14Z</time>
      </trkpt>
      <trkpt lat="44.57328" lon="5.92414">
        <ele>1288</ele>
        <time>2022-11-06T17:51:14Z</time>
      </trkpt>
      <trkpt lat="44.57332" lon="5.92403">
        <ele>1291</ele>
        <time>2022-11-06T17:51:14Z</time>
      </trkpt>
      <trkpt lat="44.57335" lon="5.92392">
        <ele>1293</ele>
        <time>2022-11-06T17:51:14Z</time>
      </trkpt>
      <trkpt lat="44.57342" lon="5.92396">
        <ele>1295</ele>
        <time>2022-11-06T17:51:14Z</time>
      </trkpt>
      <trkpt lat="44.57341" lon="5.92384">
        <ele>1296</ele>
        <time>2022-11-06T17:51:14Z</time>
      </trkpt>
      <trkpt lat="44.57344" lon="5.92367">
        <ele>1296</ele>
        <time>2022-11-06T17:51:14Z</time>
      </trkpt>
      <trkpt lat="44.5735" lon="5.9235">
        <ele>1295</ele>
        <time>2022-11-06T17:51:14Z</time>
      </trkpt>
      <trkpt lat="44.57355" lon="5.92341">
        <ele>1295</ele>
        <time>2022-11-06T17:51:14Z</time>
      </trkpt>
      <trkpt lat="44.57368" lon="5.92315">
        <ele>1298</ele>
        <time>2022-11-06T17:51:14Z</time>
      </trkpt>
      <trkpt lat="44.57374" lon="5.92285">
        <ele>1297</ele>
        <time>2022-11-06T17:51:15Z</time>
      </trkpt>
      <trkpt lat="44.57376" lon="5.92261">
        <ele>1294</ele>
        <time>2022-11-06T17:51:15Z</time>
      </trkpt>
      <trkpt lat="44.57376" lon="5.92257">
        <ele>1291</ele>
        <time>2022-11-06T17:51:15Z</time>
      </trkpt>
      <trkpt lat="44.57377" lon="5.92247">
        <ele>1291</ele>
        <time>2022-11-06T17:51:15Z</time>
      </trkpt>
      <trkpt lat="44.57384" lon="5.92219">
        <ele>1293</ele>
        <time>2022-11-06T17:51:15Z</time>
      </trkpt>
      <trkpt lat="44.5738" lon="5.92182">
        <ele>1290</ele>
        <time>2022-11-06T17:51:15Z</time>
      </trkpt>
      <trkpt lat="44.57375" lon="5.92166">
        <ele>1288</ele>
        <time>2022-11-06T17:51:15Z</time>
      </trkpt>
      <trkpt lat="44.57376" lon="5.92153">
        <ele>1287</ele>
        <time>2022-11-06T17:51:15Z</time>
      </trkpt>
      <trkpt lat="44.57375" lon="5.92118">
        <ele>1283</ele>
        <time>2022-11-06T17:51:15Z</time>
      </trkpt>
      <trkpt lat="44.57395" lon="5.91976">
        <ele>1283</ele>
        <time>2022-11-06T17:51:15Z</time>
      </trkpt>
      <trkpt lat="44.57403" lon="5.91959">
        <ele>1285</ele>
        <time>2022-11-06T17:51:15Z</time>
      </trkpt>
      <trkpt lat="44.57417" lon="5.91945">
        <ele>1288</ele>
        <time>2022-11-06T17:51:15Z</time>
      </trkpt>
      <trkpt lat="44.57434" lon="5.91922">
        <ele>1293</ele>
        <time>2022-11-06T17:51:15Z</time>
      </trkpt>
      <trkpt lat="44.57461" lon="5.91866">
        <ele>1298</ele>
        <time>2022-11-06T17:51:15Z</time>
      </trkpt>
      <trkpt lat="44.57466" lon="5.91851">
        <ele>1299</ele>
        <time>2022-11-06T17:51:15Z</time>
      </trkpt>
      <trkpt lat="44.57472" lon="5.91839">
        <ele>1299</ele>
        <time>2022-11-06T17:51:15Z</time>
      </trkpt>
      <trkpt lat="44.57478" lon="5.91832">
        <ele>1300</ele>
        <time>2022-11-06T17:51:15Z</time>
      </trkpt>
      <trkpt lat="44.57496" lon="5.91798">
        <ele>1305</ele>
        <time>2022-11-06T17:51:15Z</time>
      </trkpt>
      <trkpt lat="44.57492" lon="5.91787">
        <ele>1306</ele>
        <time>2022-11-06T17:51:15Z</time>
      </trkpt>
      <trkpt lat="44.57495" lon="5.91772">
        <ele>1304</ele>
        <time>2022-11-06T17:51:15Z</time>
      </trkpt>
      <trkpt lat="44.57495" lon="5.91758">
        <ele>1302</ele>
        <time>2022-11-06T17:51:15Z</time>
      </trkpt>
      <trkpt lat="44.57513" lon="5.91682">
        <ele>1297</ele>
        <time>2022-11-06T17:51:15Z</time>
      </trkpt>
      <trkpt lat="44.5754" lon="5.91635">
        <ele>1296</ele>
        <time>2022-11-06T17:51:15Z</time>
      </trkpt>
      <trkpt lat="44.57555" lon="5.91618">
        <ele>1296</ele>
        <time>2022-11-06T17:51:15Z</time>
      </trkpt>
      <trkpt lat="44.5757" lon="5.91586">
        <ele>1296</ele>
        <time>2022-11-06T17:51:15Z</time>
      </trkpt>
      <trkpt lat="44.5759" lon="5.91552">
        <ele>1290</ele>
        <time>2022-11-06T17:51:15Z</time>
      </trkpt>
      <trkpt lat="44.57596" lon="5.91534">
        <ele>1291</ele>
        <time>2022-11-06T17:51:15Z</time>
      </trkpt>
      <trkpt lat="44.57599" lon="5.91522">
        <ele>1293</ele>
        <time>2022-11-06T17:51:15Z</time>
      </trkpt>
      <trkpt lat="44.57604" lon="5.91515">
        <ele>1294</ele>
        <time>2022-11-06T17:51:16Z</time>
      </trkpt>
      <trkpt lat="44.57611" lon="5.91511">
        <ele>1298</ele>
        <time>2022-11-06T17:51:16Z</time>
      </trkpt>
      <trkpt lat="44.57621" lon="5.91485">
        <ele>1299</ele>
        <time>2022-11-06T17:51:16Z</time>
      </trkpt>
      <trkpt lat="44.57644" lon="5.91442">
        <ele>1300</ele>
        <time>2022-11-06T17:51:16Z</time>
      </trkpt>
      <trkpt lat="44.57655" lon="5.91412">
        <ele>1301</ele>
        <time>2022-11-06T17:51:16Z</time>
      </trkpt>
      <trkpt lat="44.57663" lon="5.914">
        <ele>1303</ele>
        <time>2022-11-06T17:51:16Z</time>
      </trkpt>
      <trkpt lat="44.5767" lon="5.91397">
        <ele>1305</ele>
        <time>2022-11-06T17:51:16Z</time>
      </trkpt>
      <trkpt lat="44.57677" lon="5.91393">
        <ele>1307</ele>
        <time>2022-11-06T17:51:16Z</time>
      </trkpt>
      <trkpt lat="44.57692" lon="5.91389">
        <ele>1311</ele>
        <time>2022-11-06T17:51:16Z</time>
      </trkpt>
      <trkpt lat="44.57699" lon="5.91387">
        <ele>1313</ele>
        <time>2022-11-06T17:51:16Z</time>
      </trkpt>
      <trkpt lat="44.57708" lon="5.91383">
        <ele>1315</ele>
        <time>2022-11-06T17:51:16Z</time>
      </trkpt>
      <trkpt lat="44.57716" lon="5.91379">
        <ele>1318</ele>
        <time>2022-11-06T17:51:16Z</time>
      </trkpt>
      <trkpt lat="44.57723" lon="5.91373">
        <ele>1321</ele>
        <time>2022-11-06T17:51:16Z</time>
      </trkpt>
      <trkpt lat="44.57729" lon="5.91352">
        <ele>1324</ele>
        <time>2022-11-06T17:51:16Z</time>
      </trkpt>
      <trkpt lat="44.5773" lon="5.91342">
        <ele>1326</ele>
        <time>2022-11-06T17:51:16Z</time>
      </trkpt>
      <trkpt lat="44.57737" lon="5.9134">
        <ele>1328</ele>
        <time>2022-11-06T17:51:16Z</time>
      </trkpt>
      <trkpt lat="44.57731" lon="5.91316">
        <ele>1328</ele>
        <time>2022-11-06T17:51:16Z</time>
      </trkpt>
      <trkpt lat="44.57732" lon="5.91306">
        <ele>1328</ele>
        <time>2022-11-06T17:51:16Z</time>
      </trkpt>
      <trkpt lat="44.57731" lon="5.91296">
        <ele>1328</ele>
        <time>2022-11-06T17:51:16Z</time>
      </trkpt>
      <trkpt lat="44.5773" lon="5.91282">
        <ele>1326</ele>
        <time>2022-11-06T17:51:16Z</time>
      </trkpt>
      <trkpt lat="44.57729" lon="5.91255">
        <ele>1322</ele>
        <time>2022-11-06T17:51:16Z</time>
      </trkpt>
      <trkpt lat="44.5772" lon="5.9118">
        <ele>1316</ele>
        <time>2022-11-06T17:51:16Z</time>
      </trkpt>
      <trkpt lat="44.5772" lon="5.91168">
        <ele>1316</ele>
        <time>2022-11-06T17:51:16Z</time>
      </trkpt>
      <trkpt lat="44.57716" lon="5.91154">
        <ele>1315</ele>
        <time>2022-11-06T17:51:16Z</time>
      </trkpt>
      <trkpt lat="44.5772" lon="5.91117">
        <ele>1311</ele>
        <time>2022-11-06T17:51:16Z</time>
      </trkpt>
      <trkpt lat="44.57715" lon="5.91109">
        <ele>1311</ele>
        <time>2022-11-06T17:51:16Z</time>
      </trkpt>
      <trkpt lat="44.57707" lon="5.91112">
        <ele>1311</ele>
        <time>2022-11-06T17:51:16Z</time>
      </trkpt>
      <trkpt lat="44.57698" lon="5.9111">
        <ele>1312</ele>
        <time>2022-11-06T17:51:16Z</time>
      </trkpt>
      <trkpt lat="44.57682" lon="5.91113">
        <ele>1300</ele>
        <time>2022-11-06T17:51:16Z</time>
      </trkpt>
      <trkpt lat="44.57674" lon="5.91118">
        <ele>1295</ele>
        <time>2022-11-06T17:51:16Z</time>
      </trkpt>
      <trkpt lat="44.57648" lon="5.91154">
        <ele>1294</ele>
        <time>2022-11-06T17:51:16Z</time>
      </trkpt>
      <trkpt lat="44.57637" lon="5.91137">
        <ele>1280</ele>
        <time>2022-11-06T17:51:16Z</time>
      </trkpt>
      <trkpt lat="44.57624" lon="5.91128">
        <ele>1264</ele>
        <time>2022-11-06T17:51:16Z</time>
      </trkpt>
      <trkpt lat="44.57616" lon="5.91133">
        <ele>1261</ele>
        <time>2022-11-06T17:51:16Z</time>
      </trkpt>
      <trkpt lat="44.5758" lon="5.91185">
        <ele>1261</ele>
        <time>2022-11-06T17:51:16Z</time>
      </trkpt>
      <trkpt lat="44.57568" lon="5.91209">
        <ele>1260</ele>
        <time>2022-11-06T17:51:16Z</time>
      </trkpt>
      <trkpt lat="44.57561" lon="5.91202">
        <ele>1256</ele>
        <time>2022-11-06T17:51:16Z</time>
      </trkpt>
      <trkpt lat="44.57553" lon="5.91202">
        <ele>1251</ele>
        <time>2022-11-06T17:51:16Z</time>
      </trkpt>
      <trkpt lat="44.57544" lon="5.91211">
        <ele>1251</ele>
        <time>2022-11-06T17:51:16Z</time>
      </trkpt>
      <trkpt lat="44.57535" lon="5.912">
        <ele>1252</ele>
        <time>2022-11-06T17:51:16Z</time>
      </trkpt>
      <trkpt lat="44.57524" lon="5.91186">
        <ele>1256</ele>
        <time>2022-11-06T17:51:16Z</time>
      </trkpt>
      <trkpt lat="44.57518" lon="5.91178">
        <ele>1259</ele>
        <time>2022-11-06T17:51:16Z</time>
      </trkpt>
      <trkpt lat="44.57513" lon="5.91171">
        <ele>1261</ele>
        <time>2022-11-06T17:51:16Z</time>
      </trkpt>
      <trkpt lat="44.57504" lon="5.91162">
        <ele>1264</ele>
        <time>2022-11-06T17:51:16Z</time>
      </trkpt>
      <trkpt lat="44.575" lon="5.91153">
        <ele>1266</ele>
        <time>2022-11-06T17:51:16Z</time>
      </trkpt>
      <trkpt lat="44.57492" lon="5.91143">
        <ele>1269</ele>
        <time>2022-11-06T17:51:16Z</time>
      </trkpt>
      <trkpt lat="44.57448" lon="5.91138">
        <ele>1275</ele>
        <time>2022-11-06T17:51:16Z</time>
      </trkpt>
      <trkpt lat="44.57438" lon="5.91134">
        <ele>1276</ele>
        <time>2022-11-06T17:51:16Z</time>
      </trkpt>
      <trkpt lat="44.57432" lon="5.91128">
        <ele>1277</ele>
        <time>2022-11-06T17:51:16Z</time>
      </trkpt>
      <trkpt lat="44.5742" lon="5.91123">
        <ele>1279</ele>
        <time>2022-11-06T17:51:16Z</time>
      </trkpt>
      <trkpt lat="44.57386" lon="5.91123">
        <ele>1281</ele>
        <time>2022-11-06T17:51:16Z</time>
      </trkpt>
      <trkpt lat="44.5733" lon="5.91096">
        <ele>1289</ele>
        <time>2022-11-06T17:51:16Z</time>
      </trkpt>
      <trkpt lat="44.57272" lon="5.91084">
        <ele>1294</ele>
        <time>2022-11-06T17:51:16Z</time>
      </trkpt>
      <trkpt lat="44.57263" lon="5.91079">
        <ele>1295</ele>
        <time>2022-11-06T17:51:16Z</time>
      </trkpt>
      <trkpt lat="44.57255" lon="5.9107">
        <ele>1296</ele>
        <time>2022-11-06T17:51:16Z</time>
      </trkpt>
      <trkpt lat="44.57248" lon="5.91066">
        <ele>1297</ele>
        <time>2022-11-06T17:51:16Z</time>
      </trkpt>
      <trkpt lat="44.5723" lon="5.91062">
        <ele>1299</ele>
        <time>2022-11-06T17:51:17Z</time>
      </trkpt>
      <trkpt lat="44.57219" lon="5.91065">
        <ele>1301</ele>
        <time>2022-11-06T17:51:17Z</time>
      </trkpt>
      <trkpt lat="44.57197" lon="5.91052">
        <ele>1303</ele>
        <time>2022-11-06T17:51:17Z</time>
      </trkpt>
      <trkpt lat="44.57181" lon="5.9103">
        <ele>1305</ele>
        <time>2022-11-06T17:51:17Z</time>
      </trkpt>
      <trkpt lat="44.57173" lon="5.91024">
        <ele>1305</ele>
        <time>2022-11-06T17:51:17Z</time>
      </trkpt>
      <trkpt lat="44.57157" lon="5.91029">
        <ele>1306</ele>
        <time>2022-11-06T17:51:17Z</time>
      </trkpt>
      <trkpt lat="44.57146" lon="5.91021">
        <ele>1307</ele>
        <time>2022-11-06T17:51:17Z</time>
      </trkpt>
      <trkpt lat="44.57123" lon="5.90967">
        <ele>1311</ele>
        <time>2022-11-06T17:51:17Z</time>
      </trkpt>
      <trkpt lat="44.57114" lon="5.90957">
        <ele>1312</ele>
        <time>2022-11-06T17:51:17Z</time>
      </trkpt>
      <trkpt lat="44.57094" lon="5.90936">
        <ele>1315</ele>
        <time>2022-11-06T17:51:17Z</time>
      </trkpt>
      <trkpt lat="44.57088" lon="5.9093">
        <ele>1317</ele>
        <time>2022-11-06T17:51:17Z</time>
      </trkpt>
      <trkpt lat="44.57076" lon="5.90914">
        <ele>1319</ele>
        <time>2022-11-06T17:51:17Z</time>
      </trkpt>
      <trkpt lat="44.57048" lon="5.90881">
        <ele>1325</ele>
        <time>2022-11-06T17:51:17Z</time>
      </trkpt>
      <trkpt lat="44.57044" lon="5.90869">
        <ele>1326</ele>
        <time>2022-11-06T17:51:17Z</time>
      </trkpt>
      <trkpt lat="44.57039" lon="5.90875">
        <ele>1325</ele>
        <time>2022-11-06T17:51:17Z</time>
      </trkpt>
      <trkpt lat="44.57041" lon="5.90872">
        <ele>1325</ele>
        <time>2022-11-06T17:51:17Z</time>
      </trkpt>
      <trkpt lat="44.57035" lon="5.90866">
        <ele>1325</ele>
        <time>2022-11-06T17:51:17Z</time>
      </trkpt>
      <trkpt lat="44.57034" lon="5.90865">
        <ele>1325</ele>
        <time>2022-11-06T17:51:17Z</time>
      </trkpt>
      <trkpt lat="44.57033" lon="5.90851">
        <ele>1325</ele>
        <time>2022-11-06T17:51:17Z</time>
      </trkpt>
      <trkpt lat="44.57042" lon="5.90798">
        <ele>1325</ele>
        <time>2022-11-06T17:51:17Z</time>
      </trkpt>
      <trkpt lat="44.57047" lon="5.90789">
        <ele>1325</ele>
        <time>2022-11-06T17:51:17Z</time>
      </trkpt>
      <trkpt lat="44.57081" lon="5.90696">
        <ele>1327</ele>
        <time>2022-11-06T17:51:17Z</time>
      </trkpt>
      <trkpt lat="44.5708" lon="5.90684">
        <ele>1327</ele>
        <time>2022-11-06T17:51:17Z</time>
      </trkpt>
      <trkpt lat="44.57076" lon="5.90674">
        <ele>1327</ele>
        <time>2022-11-06T17:51:17Z</time>
      </trkpt>
      <trkpt lat="44.57077" lon="5.90654">
        <ele>1326</ele>
        <time>2022-11-06T17:51:17Z</time>
      </trkpt>
      <trkpt lat="44.57079" lon="5.9064">
        <ele>1324</ele>
        <time>2022-11-06T17:51:17Z</time>
      </trkpt>
      <trkpt lat="44.57085" lon="5.90628">
        <ele>1323</ele>
        <time>2022-11-06T17:51:17Z</time>
      </trkpt>
      <trkpt lat="44.57101" lon="5.90596">
        <ele>1319</ele>
        <time>2022-11-06T17:51:17Z</time>
      </trkpt>
      <trkpt lat="44.57117" lon="5.9054">
        <ele>1315</ele>
        <time>2022-11-06T17:51:17Z</time>
      </trkpt>
      <trkpt lat="44.57119" lon="5.90523">
        <ele>1313</ele>
        <time>2022-11-06T17:51:17Z</time>
      </trkpt>
      <trkpt lat="44.57119" lon="5.90508">
        <ele>1311</ele>
        <time>2022-11-06T17:51:17Z</time>
      </trkpt>
      <trkpt lat="44.57112" lon="5.90478">
        <ele>1306</ele>
        <time>2022-11-06T17:51:17Z</time>
      </trkpt>
      <trkpt lat="44.57113" lon="5.90466">
        <ele>1304</ele>
        <time>2022-11-06T17:51:17Z</time>
      </trkpt>
      <trkpt lat="44.57117" lon="5.90434">
        <ele>1301</ele>
        <time>2022-11-06T17:51:17Z</time>
      </trkpt>
      <trkpt lat="44.5712" lon="5.90418">
        <ele>1298</ele>
        <time>2022-11-06T17:51:17Z</time>
      </trkpt>
      <trkpt lat="44.57134" lon="5.90396">
        <ele>1296</ele>
        <time>2022-11-06T17:51:17Z</time>
      </trkpt>
      <trkpt lat="44.5714" lon="5.90388">
        <ele>1295</ele>
        <time>2022-11-06T17:51:17Z</time>
      </trkpt>
      <trkpt lat="44.57148" lon="5.90371">
        <ele>1294</ele>
        <time>2022-11-06T17:51:17Z</time>
      </trkpt>
      <trkpt lat="44.57147" lon="5.90356">
        <ele>1297</ele>
        <time>2022-11-06T17:51:17Z</time>
      </trkpt>
      <trkpt lat="44.57084" lon="5.90272">
        <ele>1295</ele>
        <time>2022-11-06T17:51:17Z</time>
      </trkpt>
      <trkpt lat="44.57082" lon="5.90259">
        <ele>1292</ele>
        <time>2022-11-06T17:51:17Z</time>
      </trkpt>
      <trkpt lat="44.57078" lon="5.90249">
        <ele>1290</ele>
        <time>2022-11-06T17:51:17Z</time>
      </trkpt>
      <trkpt lat="44.5707" lon="5.90227">
        <ele>1288</ele>
        <time>2022-11-06T17:51:17Z</time>
      </trkpt>
      <trkpt lat="44.57063" lon="5.90226">
        <ele>1286</ele>
        <time>2022-11-06T17:51:17Z</time>
      </trkpt>
      <trkpt lat="44.57056" lon="5.90222">
        <ele>1284</ele>
        <time>2022-11-06T17:51:17Z</time>
      </trkpt>
      <trkpt lat="44.57047" lon="5.9022">
        <ele>1278</ele>
        <time>2022-11-06T17:51:17Z</time>
      </trkpt>
      <trkpt lat="44.57038" lon="5.9022">
        <ele>1275</ele>
        <time>2022-11-06T17:51:17Z</time>
      </trkpt>
      <trkpt lat="44.57032" lon="5.90216">
        <ele>1273</ele>
        <time>2022-11-06T17:51:17Z</time>
      </trkpt>
      <trkpt lat="44.57021" lon="5.90209">
        <ele>1269</ele>
        <time>2022-11-06T17:51:17Z</time>
      </trkpt>
      <trkpt lat="44.57011" lon="5.90197">
        <ele>1268</ele>
        <time>2022-11-06T17:51:17Z</time>
      </trkpt>
      <trkpt lat="44.57004" lon="5.90185">
        <ele>1265</ele>
        <time>2022-11-06T17:51:17Z</time>
      </trkpt>
      <trkpt lat="44.56993" lon="5.90165">
        <ele>1259</ele>
        <time>2022-11-06T17:51:17Z</time>
      </trkpt>
      <trkpt lat="44.56983" lon="5.90148">
        <ele>1256</ele>
        <time>2022-11-06T17:51:17Z</time>
      </trkpt>
      <trkpt lat="44.5688" lon="5.89924">
        <ele>1247</ele>
        <time>2022-11-06T17:51:17Z</time>
      </trkpt>
      <trkpt lat="44.5687" lon="5.89913">
        <ele>1247</ele>
        <time>2022-11-06T17:51:17Z</time>
      </trkpt>
      <trkpt lat="44.56858" lon="5.89901">
        <ele>1242</ele>
        <time>2022-11-06T17:51:18Z</time>
      </trkpt>
      <trkpt lat="44.56851" lon="5.89896">
        <ele>1241</ele>
        <time>2022-11-06T17:51:18Z</time>
      </trkpt>
      <trkpt lat="44.56829" lon="5.89873">
        <ele>1236</ele>
        <time>2022-11-06T17:51:18Z</time>
      </trkpt>
      <trkpt lat="44.56811" lon="5.89848">
        <ele>1233</ele>
        <time>2022-11-06T17:51:18Z</time>
      </trkpt>
      <trkpt lat="44.56805" lon="5.8984">
        <ele>1230</ele>
        <time>2022-11-06T17:51:18Z</time>
      </trkpt>
      <trkpt lat="44.56777" lon="5.8979">
        <ele>1210</ele>
        <time>2022-11-06T17:51:18Z</time>
      </trkpt>
      <trkpt lat="44.56775" lon="5.8978">
        <ele>1205</ele>
        <time>2022-11-06T17:51:18Z</time>
      </trkpt>
      <trkpt lat="44.56775" lon="5.89768">
        <ele>1203</ele>
        <time>2022-11-06T17:51:18Z</time>
      </trkpt>
      <trkpt lat="44.56774" lon="5.89756">
        <ele>1200</ele>
        <time>2022-11-06T17:51:18Z</time>
      </trkpt>
      <trkpt lat="44.5677" lon="5.89744">
        <ele>1197</ele>
        <time>2022-11-06T17:51:18Z</time>
      </trkpt>
      <trkpt lat="44.56768" lon="5.89731">
        <ele>1194</ele>
        <time>2022-11-06T17:51:18Z</time>
      </trkpt>
      <trkpt lat="44.56766" lon="5.89718">
        <ele>1191</ele>
        <time>2022-11-06T17:51:18Z</time>
      </trkpt>
      <trkpt lat="44.56761" lon="5.89706">
        <ele>1190</ele>
        <time>2022-11-06T17:51:18Z</time>
      </trkpt>
      <trkpt lat="44.56756" lon="5.89696">
        <ele>1188</ele>
        <time>2022-11-06T17:51:18Z</time>
      </trkpt>
      <trkpt lat="44.56751" lon="5.89679">
        <ele>1186</ele>
        <time>2022-11-06T17:51:18Z</time>
      </trkpt>
      <trkpt lat="44.56753" lon="5.89668">
        <ele>1183</ele>
        <time>2022-11-06T17:51:18Z</time>
      </trkpt>
      <trkpt lat="44.5676" lon="5.89648">
        <ele>1181</ele>
        <time>2022-11-06T17:51:18Z</time>
      </trkpt>
      <trkpt lat="44.56764" lon="5.89639">
        <ele>1178</ele>
        <time>2022-11-06T17:51:18Z</time>
      </trkpt>
      <trkpt lat="44.56771" lon="5.89608">
        <ele>1173</ele>
        <time>2022-11-06T17:51:18Z</time>
      </trkpt>
      <trkpt lat="44.56775" lon="5.89595">
        <ele>1170</ele>
        <time>2022-11-06T17:51:18Z</time>
      </trkpt>
      <trkpt lat="44.56779" lon="5.89579">
        <ele>1166</ele>
        <time>2022-11-06T17:51:18Z</time>
      </trkpt>
      <trkpt lat="44.56785" lon="5.89554">
        <ele>1162</ele>
        <time>2022-11-06T17:51:18Z</time>
      </trkpt>
      <trkpt lat="44.56788" lon="5.89541">
        <ele>1159</ele>
        <time>2022-11-06T17:51:18Z</time>
      </trkpt>
      <trkpt lat="44.56808" lon="5.89513">
        <ele>1156</ele>
        <time>2022-11-06T17:51:18Z</time>
      </trkpt>
      <trkpt lat="44.56805" lon="5.89491">
        <ele>1156</ele>
        <time>2022-11-06T17:51:18Z</time>
      </trkpt>
      <trkpt lat="44.56816" lon="5.89467">
        <ele>1152</ele>
        <time>2022-11-06T17:51:18Z</time>
      </trkpt>
      <trkpt lat="44.5682" lon="5.89458">
        <ele>1149</ele>
        <time>2022-11-06T17:51:18Z</time>
      </trkpt>
      <trkpt lat="44.56826" lon="5.89452">
        <ele>1147</ele>
        <time>2022-11-06T17:51:18Z</time>
      </trkpt>
      <trkpt lat="44.56831" lon="5.89442">
        <ele>1144</ele>
        <time>2022-11-06T17:51:18Z</time>
      </trkpt>
      <trkpt lat="44.56838" lon="5.89429">
        <ele>1141</ele>
        <time>2022-11-06T17:51:18Z</time>
      </trkpt>
      <trkpt lat="44.56842" lon="5.89411">
        <ele>1138</ele>
        <time>2022-11-06T17:51:18Z</time>
      </trkpt>
      <trkpt lat="44.56844" lon="5.89399">
        <ele>1135</ele>
        <time>2022-11-06T17:51:18Z</time>
      </trkpt>
      <trkpt lat="44.56845" lon="5.89389">
        <ele>1132</ele>
        <time>2022-11-06T17:51:18Z</time>
      </trkpt>
      <trkpt lat="44.5685" lon="5.89365">
        <ele>1128</ele>
        <time>2022-11-06T17:51:18Z</time>
      </trkpt>
      <trkpt lat="44.56852" lon="5.89355">
        <ele>1125</ele>
        <time>2022-11-06T17:51:18Z</time>
      </trkpt>
      <trkpt lat="44.56856" lon="5.89342">
        <ele>1122</ele>
        <time>2022-11-06T17:51:18Z</time>
      </trkpt>
      <trkpt lat="44.56857" lon="5.89329">
        <ele>1119</ele>
        <time>2022-11-06T17:51:18Z</time>
      </trkpt>
      <trkpt lat="44.56862" lon="5.89318">
        <ele>1115</ele>
        <time>2022-11-06T17:51:18Z</time>
      </trkpt>
      <trkpt lat="44.56869" lon="5.89291">
        <ele>1110</ele>
        <time>2022-11-06T17:51:18Z</time>
      </trkpt>
      <trkpt lat="44.56869" lon="5.8928">
        <ele>1108</ele>
        <time>2022-11-06T17:51:18Z</time>
      </trkpt>
      <trkpt lat="44.56872" lon="5.89266">
        <ele>1103</ele>
        <time>2022-11-06T17:51:18Z</time>
      </trkpt>
      <trkpt lat="44.56878" lon="5.89237">
        <ele>1099</ele>
        <time>2022-11-06T17:51:18Z</time>
      </trkpt>
      <trkpt lat="44.56883" lon="5.8922">
        <ele>1094</ele>
        <time>2022-11-06T17:51:18Z</time>
      </trkpt>
      <trkpt lat="44.56882" lon="5.89205">
        <ele>1092</ele>
        <time>2022-11-06T17:51:18Z</time>
      </trkpt>
      <trkpt lat="44.56881" lon="5.89176">
        <ele>1088</ele>
        <time>2022-11-06T17:51:18Z</time>
      </trkpt>
      <trkpt lat="44.56882" lon="5.8916">
        <ele>1085</ele>
        <time>2022-11-06T17:51:18Z</time>
      </trkpt>
      <trkpt lat="44.56884" lon="5.8915">
        <ele>1082</ele>
        <time>2022-11-06T17:51:18Z</time>
      </trkpt>
      <trkpt lat="44.56885" lon="5.89131">
        <ele>1078</ele>
        <time>2022-11-06T17:51:18Z</time>
      </trkpt>
      <trkpt lat="44.56885" lon="5.89116">
        <ele>1074</ele>
        <time>2022-11-06T17:51:18Z</time>
      </trkpt>
      <trkpt lat="44.56882" lon="5.89104">
        <ele>1072</ele>
        <time>2022-11-06T17:51:18Z</time>
      </trkpt>
      <trkpt lat="44.56878" lon="5.89094">
        <ele>1069</ele>
        <time>2022-11-06T17:51:18Z</time>
      </trkpt>
      <trkpt lat="44.56869" lon="5.89087">
        <ele>1066</ele>
        <time>2022-11-06T17:51:18Z</time>
      </trkpt>
      <trkpt lat="44.56853" lon="5.89089">
        <ele>1058</ele>
        <time>2022-11-06T17:51:18Z</time>
      </trkpt>
      <trkpt lat="44.56843" lon="5.8908">
        <ele>1055</ele>
        <time>2022-11-06T17:51:18Z</time>
      </trkpt>
      <trkpt lat="44.5683" lon="5.8907">
        <ele>1052</ele>
        <time>2022-11-06T17:51:18Z</time>
      </trkpt>
      <trkpt lat="44.56819" lon="5.89073">
        <ele>1050</ele>
        <time>2022-11-06T17:51:18Z</time>
      </trkpt>
      <trkpt lat="44.56806" lon="5.89093">
        <ele>1048</ele>
        <time>2022-11-06T17:51:18Z</time>
      </trkpt>
      <trkpt lat="44.56803" lon="5.89106">
        <ele>1048</ele>
        <time>2022-11-06T17:51:18Z</time>
      </trkpt>
      <trkpt lat="44.56797" lon="5.89114">
        <ele>1046</ele>
        <time>2022-11-06T17:51:18Z</time>
      </trkpt>
      <trkpt lat="44.5679" lon="5.89107">
        <ele>1045</ele>
        <time>2022-11-06T17:51:18Z</time>
      </trkpt>
      <trkpt lat="44.56795" lon="5.89061">
        <ele>1042</ele>
        <time>2022-11-06T17:51:18Z</time>
      </trkpt>
      <trkpt lat="44.56782" lon="5.89063">
        <ele>1039</ele>
        <time>2022-11-06T17:51:18Z</time>
      </trkpt>
      <trkpt lat="44.56773" lon="5.89058">
        <ele>1038</ele>
        <time>2022-11-06T17:51:18Z</time>
      </trkpt>
      <trkpt lat="44.56773" lon="5.89047">
        <ele>1037</ele>
        <time>2022-11-06T17:51:18Z</time>
      </trkpt>
      <trkpt lat="44.56777" lon="5.89009">
        <ele>1033</ele>
        <time>2022-11-06T17:51:18Z</time>
      </trkpt>
      <trkpt lat="44.56779" lon="5.88996">
        <ele>1028</ele>
        <time>2022-11-06T17:51:18Z</time>
      </trkpt>
      <trkpt lat="44.56782" lon="5.88982">
        <ele>1025</ele>
        <time>2022-11-06T17:51:18Z</time>
      </trkpt>
      <trkpt lat="44.5679" lon="5.88958">
        <ele>1021</ele>
        <time>2022-11-06T17:51:18Z</time>
      </trkpt>
      <trkpt lat="44.56811" lon="5.88918">
        <ele>1015</ele>
        <time>2022-11-06T17:51:18Z</time>
      </trkpt>
      <trkpt lat="44.56821" lon="5.88898">
        <ele>1010</ele>
        <time>2022-11-06T17:51:18Z</time>
      </trkpt>
      <trkpt lat="44.56827" lon="5.88888">
        <ele>1007</ele>
        <time>2022-11-06T17:51:18Z</time>
      </trkpt>
      <trkpt lat="44.56832" lon="5.8888">
        <ele>1004</ele>
        <time>2022-11-06T17:51:18Z</time>
      </trkpt>
      <trkpt lat="44.56837" lon="5.8887">
        <ele>1002</ele>
        <time>2022-11-06T17:51:18Z</time>
      </trkpt>
      <trkpt lat="44.56894" lon="5.88784">
        <ele>992</ele>
        <time>2022-11-06T17:51:18Z</time>
      </trkpt>
      <trkpt lat="44.56899" lon="5.88769">
        <ele>989</ele>
        <time>2022-11-06T17:51:18Z</time>
      </trkpt>
      <trkpt lat="44.56905" lon="5.88754">
        <ele>986</ele>
        <time>2022-11-06T17:51:18Z</time>
      </trkpt>
      <trkpt lat="44.56915" lon="5.88742">
        <ele>984</ele>
        <time>2022-11-06T17:51:18Z</time>
      </trkpt>
      <trkpt lat="44.56922" lon="5.88729">
        <ele>981</ele>
        <time>2022-11-06T17:51:18Z</time>
      </trkpt>
      <trkpt lat="44.56928" lon="5.88706">
        <ele>978</ele>
        <time>2022-11-06T17:51:18Z</time>
      </trkpt>
      <trkpt lat="44.56951" lon="5.88667">
        <ele>973</ele>
        <time>2022-11-06T17:51:18Z</time>
      </trkpt>
      <trkpt lat="44.56961" lon="5.8865">
        <ele>970</ele>
        <time>2022-11-06T17:51:18Z</time>
      </trkpt>
      <trkpt lat="44.56984" lon="5.88612">
        <ele>961</ele>
        <time>2022-11-06T17:51:18Z</time>
      </trkpt>
      <trkpt lat="44.57001" lon="5.88564">
        <ele>957</ele>
        <time>2022-11-06T17:51:18Z</time>
      </trkpt>
      <trkpt lat="44.57003" lon="5.88551">
        <ele>956</ele>
        <time>2022-11-06T17:51:18Z</time>
      </trkpt>
      <trkpt lat="44.57004" lon="5.88539">
        <ele>954</ele>
        <time>2022-11-06T17:51:18Z</time>
      </trkpt>
      <trkpt lat="44.57004" lon="5.88516">
        <ele>950</ele>
        <time>2022-11-06T17:51:18Z</time>
      </trkpt>
      <trkpt lat="44.57003" lon="5.88506">
        <ele>949</ele>
        <time>2022-11-06T17:51:18Z</time>
      </trkpt>
      <trkpt lat="44.56998" lon="5.88478">
        <ele>946</ele>
        <time>2022-11-06T17:51:18Z</time>
      </trkpt>
      <trkpt lat="44.56991" lon="5.8846">
        <ele>945</ele>
        <time>2022-11-06T17:51:18Z</time>
      </trkpt>
      <trkpt lat="44.5697" lon="5.88435">
        <ele>942</ele>
        <time>2022-11-06T17:51:18Z</time>
      </trkpt>
      <trkpt lat="44.56956" lon="5.88427">
        <ele>938</ele>
        <time>2022-11-06T17:51:18Z</time>
      </trkpt>
      <trkpt lat="44.56876" lon="5.8842">
        <ele>928</ele>
        <time>2022-11-06T17:51:18Z</time>
      </trkpt>
      <trkpt lat="44.56832" lon="5.8843">
        <ele>927</ele>
        <time>2022-11-06T17:51:18Z</time>
      </trkpt>
      <trkpt lat="44.56817" lon="5.88426">
        <ele>927</ele>
        <time>2022-11-06T17:51:18Z</time>
      </trkpt>
      <trkpt lat="44.56779" lon="5.88398">
        <ele>927</ele>
        <time>2022-11-06T17:51:18Z</time>
      </trkpt>
      <trkpt lat="44.56772" lon="5.88403">
        <ele>929</ele>
        <time>2022-11-06T17:51:18Z</time>
      </trkpt>
      <trkpt lat="44.56769" lon="5.88413">
        <ele>929</ele>
        <time>2022-11-06T17:51:18Z</time>
      </trkpt>
      <trkpt lat="44.5676" lon="5.88427">
        <ele>929</ele>
        <time>2022-11-06T17:51:18Z</time>
      </trkpt>
      <trkpt lat="44.56431" lon="5.88725">
        <ele>904</ele>
        <time>2022-11-06T17:51:19Z</time>
      </trkpt>
      <trkpt lat="44.56358" lon="5.88794">
        <ele>906</ele>
        <time>2022-11-06T17:51:19Z</time>
      </trkpt>
      <trkpt lat="44.56342" lon="5.88808">
        <ele>902</ele>
        <time>2022-11-06T17:51:19Z</time>
      </trkpt>
      <trkpt lat="44.56191" lon="5.88946">
        <ele>892</ele>
        <time>2022-11-06T17:51:19Z</time>
      </trkpt>
      <trkpt lat="44.56184" lon="5.88948">
        <ele>891</ele>
        <time>2022-11-06T17:51:19Z</time>
      </trkpt>
      <trkpt lat="44.56166" lon="5.88935">
        <ele>892</ele>
        <time>2022-11-06T17:51:19Z</time>
      </trkpt>
      <trkpt lat="44.56153" lon="5.88916">
        <ele>894</ele>
        <time>2022-11-06T17:51:19Z</time>
      </trkpt>
      <trkpt lat="44.56145" lon="5.88908">
        <ele>894</ele>
        <time>2022-11-06T17:51:19Z</time>
      </trkpt>
      <trkpt lat="44.56138" lon="5.88908">
        <ele>894</ele>
        <time>2022-11-06T17:51:19Z</time>
      </trkpt>
    </trkseg>
  </trk>
</gpx>